Dew Point Data


Current

Temp 84.0 F. Dew Point 72.0 F.


Dew Point Comfort Scale

dewpoints

Date, Time Temperature Dew Point
Sat Apr 10 00:08:04 2021 60.0 F. 55.9 F.
Sat Apr 10 01:08:05 2021 60.0 F. 55.0 F.
Sat Apr 10 02:08:05 2021 61.0 F. 55.9 F.
Sat Apr 10 03:08:05 2021 63.0 F. 55.0 F.
Sat Apr 10 04:08:05 2021 62.0 F. 55.0 F.
Sat Apr 10 05:08:04 2021 62.0 F. 55.0 F.
Sat Apr 10 06:08:04 2021 62.0 F. 55.0 F.
Sat Apr 10 07:08:04 2021 63.0 F. 55.0 F.
Sat Apr 10 08:08:04 2021 63.0 F. 55.0 F.
Sat Apr 10 09:08:05 2021 62.0 F. 55.9 F.
Sat Apr 10 10:19:07 2021 63.0 F. 57.0 F.
Sat Apr 10 20:08:07 2021 54.0 F. 42.1 F.
Sat Apr 10 21:08:05 2021 54.0 F. 42.1 F.
Sat Apr 10 22:08:05 2021 52.0 F. 45.0 F.
Sat Apr 10 23:08:05 2021 52.0 F. 45.0 F.
Sun Apr 11 00:08:04 2021 51.0 F. 45.0 F.
Sun Apr 11 01:08:05 2021 51.0 F. 45.0 F.
Sun Apr 11 02:08:04 2021 50.0 F. 46.9 F.
Sun Apr 11 03:08:05 2021 50.0 F. 48.0 F.
Sun Apr 11 04:08:05 2021 52.0 F. 46.0 F.
Sun Apr 11 05:08:04 2021 52.0 F. 46.0 F.
Sun Apr 11 06:08:05 2021 52.0 F. 42.1 F.
Sun Apr 11 07:08:05 2021 52.0 F. 42.1 F.
Sun Apr 11 08:08:05 2021 53.0 F. 39.9 F.
Sun Apr 11 09:08:05 2021 53.0 F. 39.9 F.
Sun Apr 11 10:08:04 2021 55.0 F. 37.9 F.
Sun Apr 11 11:08:05 2021 57.0 F. 37.0 F.
Sun Apr 11 12:08:04 2021 62.0 F. 37.9 F.
Sun Apr 11 13:08:05 2021 65.0 F. 36.0 F.
Sun Apr 11 14:08:05 2021 66.0 F. 35.1 F.
Sun Apr 11 15:08:05 2021 68.0 F. 34.0 F.
Sun Apr 11 16:08:05 2021 71.0 F. 34.0 F.
Sun Apr 11 17:08:04 2021 72.0 F. 36.0 F.
Sun Apr 11 18:08:05 2021 71.0 F. 35.1 F.
Sun Apr 11 19:08:04 2021 71.0 F. 35.1 F.
Sun Apr 11 20:08:04 2021 69.0 F. 35.1 F.
Sun Apr 11 21:08:06 2021 65.0 F. 35.1 F.
Sun Apr 11 22:08:04 2021 55.0 F. 41.0 F.
Sun Apr 11 23:08:05 2021 52.0 F. 42.1 F.
Mon Apr 12 00:08:04 2021 52.0 F. 42.1 F.
Mon Apr 12 01:08:04 2021 47.0 F. 41.0 F.
Mon Apr 12 02:08:04 2021 47.0 F. 42.1 F.
Mon Apr 12 03:08:04 2021 47.0 F. 42.1 F.
Mon Apr 12 04:08:04 2021 46.0 F. 43.0 F.
Mon Apr 12 05:08:05 2021 43.0 F. 42.1 F.
Mon Apr 12 06:08:04 2021 43.0 F. 42.1 F.
Mon Apr 12 07:08:05 2021 43.0 F. 42.1 F.
Mon Apr 12 08:08:05 2021 43.0 F. 41.0 F.
Mon Apr 12 09:08:05 2021 49.0 F. 45.0 F.
Mon Apr 12 10:08:05 2021 63.0 F. 43.0 F.
Mon Apr 12 11:08:04 2021 63.0 F. 43.0 F.
Mon Apr 12 12:08:04 2021 66.0 F. 43.0 F.
Mon Apr 12 13:08:05 2021 68.0 F. 42.1 F.
Mon Apr 12 14:08:04 2021 68.0 F. 44.1 F.
Mon Apr 12 15:08:04 2021 68.0 F. 44.1 F.
Mon Apr 12 16:08:04 2021 71.0 F. 44.1 F.
Mon Apr 12 17:08:04 2021 72.0 F. 46.0 F.
Mon Apr 12 18:08:05 2021 72.0 F. 46.0 F.
Mon Apr 12 19:08:04 2021 71.0 F. 46.0 F.
Mon Apr 12 20:08:04 2021 65.0 F. 44.1 F.
Mon Apr 12 21:08:05 2021 63.0 F. 42.1 F.
Mon Apr 12 22:08:04 2021 63.0 F. 42.1 F.
Mon Apr 12 23:08:04 2021 58.0 F. 44.1 F.
Tue Apr 13 00:08:05 2021 58.0 F. 44.1 F.
Tue Apr 13 01:08:05 2021 56.0 F. 46.0 F.
Tue Apr 13 02:08:05 2021 57.0 F. 45.0 F.
Tue Apr 13 03:08:04 2021 56.0 F. 45.0 F.
Tue Apr 13 04:08:05 2021 56.0 F. 45.0 F.
Tue Apr 13 05:08:05 2021 55.0 F. 45.0 F.
Tue Apr 13 06:08:04 2021 54.0 F. 46.0 F.
Tue Apr 13 07:08:04 2021 54.0 F. 46.0 F.
Tue Apr 13 08:08:05 2021 51.0 F. 45.0 F.
Tue Apr 13 09:08:04 2021 52.0 F. 46.0 F.
Tue Apr 13 10:08:04 2021 53.0 F. 46.9 F.
Tue Apr 13 11:08:04 2021 54.0 F. 45.0 F.
Tue Apr 13 12:08:05 2021 56.0 F. 43.0 F.
Tue Apr 13 13:08:05 2021 59.0 F. 45.0 F.
Tue Apr 13 14:08:04 2021 60.0 F. 42.1 F.
Tue Apr 13 15:08:04 2021 61.0 F. 43.0 F.
Tue Apr 13 16:08:05 2021 61.0 F. 37.0 F.
Tue Apr 13 17:08:04 2021 60.0 F. 39.0 F.
Tue Apr 13 18:08:05 2021 60.0 F. 39.0 F.
Tue Apr 13 19:08:04 2021 58.0 F. 43.0 F.
Tue Apr 13 20:08:05 2021 58.0 F. 43.0 F.
Tue Apr 13 21:08:05 2021 57.0 F. 42.1 F.
Tue Apr 13 22:08:04 2021 55.0 F. 42.1 F.
Tue Apr 13 23:08:04 2021 54.0 F. 46.0 F.
Wed Apr 14 00:08:04 2021 54.0 F. 46.9 F.
Wed Apr 14 01:08:05 2021 54.0 F. 46.0 F.
Wed Apr 14 02:08:04 2021 54.0 F. 48.0 F.
Wed Apr 14 03:08:05 2021 53.0 F. 44.1 F.
Wed Apr 14 04:08:05 2021 53.0 F. 44.1 F.
Wed Apr 14 05:08:04 2021 54.0 F. 43.0 F.
Wed Apr 14 06:08:05 2021 53.0 F. 45.0 F.
Wed Apr 14 07:08:05 2021 53.0 F. 43.0 F.
Wed Apr 14 08:08:04 2021 53.0 F. 39.9 F.
Wed Apr 14 09:08:05 2021 53.0 F. 39.9 F.
Wed Apr 14 10:08:05 2021 55.0 F. 39.0 F.
Wed Apr 14 11:08:05 2021 55.0 F. 39.0 F.
Wed Apr 14 12:08:04 2021 59.0 F. 37.0 F.
Wed Apr 14 13:08:05 2021 63.0 F. 33.1 F.
Wed Apr 14 14:08:04 2021 63.0 F. 33.1 F.
Wed Apr 14 15:08:04 2021 64.0 F. 34.0 F.
Wed Apr 14 16:08:05 2021 65.0 F. 34.0 F.
Wed Apr 14 17:08:04 2021 64.0 F. 34.0 F.
Wed Apr 14 18:08:04 2021 65.0 F. 35.1 F.
Wed Apr 14 19:08:04 2021 63.0 F. 36.0 F.
Wed Apr 14 20:08:04 2021 57.0 F. 37.9 F.
Wed Apr 14 21:08:05 2021 55.0 F. 37.9 F.
Wed Apr 14 22:08:05 2021 55.0 F. 37.9 F.
Wed Apr 14 23:08:04 2021 52.0 F. 37.0 F.
Thu Apr 15 00:08:06 2021 50.0 F. 37.0 F.
Thu Apr 15 01:08:05 2021 48.0 F. 37.0 F.
Thu Apr 15 02:08:05 2021 48.0 F. 37.0 F.
Thu Apr 15 03:08:05 2021 44.0 F. 35.1 F.
Thu Apr 15 04:08:04 2021 43.0 F. 36.0 F.
Thu Apr 15 05:08:05 2021 43.0 F. 36.0 F.
Thu Apr 15 06:08:05 2021 42.0 F. 35.1 F.
Thu Apr 15 07:08:05 2021 42.0 F. 35.1 F.
Thu Apr 15 08:08:05 2021 46.0 F. 37.0 F.
Thu Apr 15 09:08:05 2021 47.0 F. 35.1 F.
Thu Apr 15 10:08:05 2021 50.0 F. 35.1 F.
Thu Apr 15 11:08:04 2021 51.0 F. 35.1 F.
Thu Apr 15 12:08:05 2021 54.0 F. 36.0 F.
Thu Apr 15 13:08:05 2021 56.0 F. 35.1 F.
Thu Apr 15 14:08:05 2021 56.0 F. 35.1 F.
Thu Apr 15 15:08:04 2021 57.0 F. 36.0 F.
Thu Apr 15 16:08:05 2021 59.0 F. 37.0 F.
Thu Apr 15 17:08:04 2021 59.0 F. 37.0 F.
Thu Apr 15 18:08:05 2021 60.0 F. 37.0 F.
Thu Apr 15 19:08:04 2021 57.0 F. 37.0 F.
Thu Apr 15 20:08:05 2021 57.0 F. 37.0 F.
Thu Apr 15 21:08:04 2021 50.0 F. 39.0 F.
Thu Apr 15 22:08:04 2021 47.0 F. 39.9 F.
Thu Apr 15 23:08:05 2021 46.0 F. 39.9 F.
Fri Apr 16 00:08:05 2021 46.0 F. 39.9 F.
Fri Apr 16 01:08:05 2021 43.0 F. 39.9 F.
Fri Apr 16 02:08:04 2021 43.0 F. 39.9 F.
Fri Apr 16 03:08:05 2021 40.0 F. 39.0 F.
Fri Apr 16 04:08:04 2021 40.0 F. 37.9 F.
Fri Apr 16 05:08:04 2021 39.0 F. 37.0 F.
Fri Apr 16 06:08:05 2021 39.0 F. 37.0 F.
Fri Apr 16 07:08:05 2021 37.0 F. 36.0 F.
Fri Apr 16 08:08:05 2021 39.0 F. 37.9 F.
Fri Apr 16 09:08:05 2021 39.0 F. 37.9 F.
Fri Apr 16 10:08:04 2021 48.0 F. 39.9 F.
Fri Apr 16 11:08:04 2021 55.0 F. 39.0 F.
Fri Apr 16 12:08:05 2021 55.0 F. 39.0 F.
Fri Apr 16 13:08:05 2021 51.0 F. 39.9 F.
Fri Apr 16 14:08:05 2021 59.0 F. 39.0 F.
Fri Apr 16 15:08:05 2021 55.0 F. 39.0 F.
Fri Apr 16 16:08:05 2021 60.0 F. 39.0 F.
Fri Apr 16 17:08:05 2021 59.0 F. 39.0 F.
Fri Apr 16 18:08:05 2021 60.0 F. 39.0 F.
Fri Apr 16 19:08:05 2021 60.0 F. 39.0 F.
Fri Apr 16 20:08:05 2021 55.0 F. 41.0 F.
Fri Apr 16 21:08:05 2021 55.0 F. 42.1 F.
Fri Apr 16 22:08:05 2021 54.0 F. 43.0 F.
Fri Apr 16 23:08:05 2021 53.0 F. 43.0 F.
Sat Apr 17 00:08:05 2021 53.0 F. 43.0 F.
Sat Apr 17 01:08:05 2021 52.0 F. 43.0 F.
Sat Apr 17 02:08:04 2021 49.0 F. 45.0 F.
Sat Apr 17 03:08:05 2021 49.0 F. 45.0 F.
Sat Apr 17 04:08:05 2021 49.0 F. 45.0 F.
Sat Apr 17 05:08:05 2021 49.0 F. 46.0 F.
Sat Apr 17 06:08:05 2021 49.0 F. 46.0 F.
Sat Apr 17 07:08:05 2021 49.0 F. 45.0 F.
Sat Apr 17 08:08:04 2021 49.0 F. 45.0 F.
Sat Apr 17 09:08:05 2021 50.0 F. 45.0 F.
Sat Apr 17 10:08:12 2021 52.0 F. 46.0 F.
Sat Apr 17 11:08:05 2021 54.0 F. 46.0 F.
Sat Apr 17 12:08:05 2021 54.0 F. 45.0 F.
Sat Apr 17 13:08:05 2021 55.0 F. 45.0 F.
Sat Apr 17 14:08:04 2021 55.0 F. 45.0 F.
Sat Apr 17 15:08:05 2021 58.0 F. 45.0 F.
Sat Apr 17 16:08:05 2021 57.0 F. 44.1 F.
Sat Apr 17 17:08:04 2021 57.0 F. 44.1 F.
Sat Apr 17 18:08:04 2021 57.0 F. 44.1 F.
Sat Apr 17 19:08:04 2021 59.0 F. 42.1 F.
Sat Apr 17 20:08:04 2021 56.0 F. 43.0 F.
Sat Apr 17 21:08:05 2021 53.0 F. 44.1 F.
Sat Apr 17 22:08:04 2021 53.0 F. 44.1 F.
Sat Apr 17 23:08:05 2021 51.0 F. 44.1 F.
Sun Apr 18 00:08:04 2021 51.0 F. 44.1 F.
Sun Apr 18 01:08:05 2021 49.0 F. 44.1 F.
Sun Apr 18 02:08:04 2021 44.0 F. 41.0 F.
Sun Apr 18 03:08:05 2021 43.0 F. 41.0 F.
Sun Apr 18 04:08:05 2021 43.0 F. 41.0 F.
Sun Apr 18 05:08:05 2021 42.0 F. 39.9 F.
Sun Apr 18 06:08:04 2021 40.0 F. 39.0 F.
Sun Apr 18 07:08:05 2021 39.0 F. 37.9 F.
Sun Apr 18 08:08:05 2021 47.0 F. 44.1 F.
Sun Apr 18 09:08:05 2021 47.0 F. 44.1 F.
Sun Apr 18 10:08:05 2021 53.0 F. 45.0 F.
Sun Apr 18 11:08:04 2021 56.0 F. 45.0 F.
Sun Apr 18 12:08:05 2021 62.0 F. 44.1 F.
Sun Apr 18 13:08:06 2021 61.0 F. 41.0 F.
Sun Apr 18 14:08:05 2021 62.0 F. 39.0 F.
Sun Apr 18 15:08:04 2021 57.0 F. 39.9 F.
Sun Apr 18 16:08:05 2021 57.0 F. 39.9 F.
Sun Apr 18 17:08:05 2021 55.0 F. 44.1 F.
Sun Apr 18 18:08:05 2021 54.0 F. 46.0 F.
Sun Apr 18 19:08:04 2021 54.0 F. 46.9 F.
Sun Apr 18 20:08:05 2021 53.0 F. 48.0 F.
Sun Apr 18 21:08:05 2021 51.0 F. 48.0 F.
Sun Apr 18 22:08:04 2021 46.0 F. 45.0 F.
Sun Apr 18 23:08:04 2021 47.0 F. 45.0 F.
Mon Apr 19 00:08:04 2021 44.0 F. 43.0 F.
Mon Apr 19 01:08:05 2021 44.0 F. 43.0 F.
Mon Apr 19 02:08:04 2021 43.0 F. 42.1 F.
Mon Apr 19 03:08:05 2021 44.0 F. 42.1 F.
Mon Apr 19 04:08:05 2021 43.0 F. 41.0 F.
Mon Apr 19 05:08:05 2021 42.0 F. 41.0 F.
Mon Apr 19 06:08:05 2021 38.0 F. 37.0 F.
Mon Apr 19 07:08:05 2021 39.0 F. 39.0 F.
Mon Apr 19 08:08:06 2021 46.0 F. 44.1 F.
Mon Apr 19 09:08:05 2021 53.0 F. 43.0 F.
Mon Apr 19 10:08:05 2021 53.0 F. 43.0 F.
Mon Apr 19 11:08:04 2021 58.0 F. 43.0 F.
Mon Apr 19 12:08:04 2021 62.0 F. 39.9 F.
Mon Apr 19 13:08:05 2021 64.0 F. 36.0 F.
Mon Apr 19 14:08:05 2021 67.0 F. 35.1 F.
Mon Apr 19 15:08:05 2021 68.0 F. 34.0 F.
Mon Apr 19 16:08:04 2021 69.0 F. 34.0 F.
Mon Apr 19 17:08:04 2021 69.0 F. 35.1 F.
Mon Apr 19 18:08:05 2021 69.0 F. 35.1 F.
Mon Apr 19 19:08:05 2021 69.0 F. 36.0 F.
Mon Apr 19 20:08:05 2021 59.0 F. 39.9 F.
Mon Apr 19 21:08:04 2021 56.0 F. 41.0 F.
Mon Apr 19 22:08:04 2021 52.0 F. 41.0 F.
Mon Apr 19 23:08:05 2021 52.0 F. 39.0 F.
Tue Apr 20 00:08:06 2021 49.0 F. 37.9 F.
Tue Apr 20 01:08:05 2021 49.0 F. 37.9 F.
Tue Apr 20 02:08:05 2021 46.0 F. 37.0 F.
Tue Apr 20 03:08:05 2021 44.0 F. 36.0 F.
Tue Apr 20 04:08:05 2021 40.0 F. 35.1 F.
Tue Apr 20 05:08:04 2021 40.0 F. 35.1 F.
Tue Apr 20 06:08:05 2021 40.0 F. 34.0 F.
Tue Apr 20 07:08:05 2021 40.0 F. 34.0 F.
Tue Apr 20 08:08:05 2021 40.0 F. 34.0 F.
Tue Apr 20 09:08:05 2021 46.0 F. 35.1 F.
Tue Apr 20 10:08:05 2021 46.0 F. 35.1 F.
Tue Apr 20 11:08:05 2021 50.0 F. 35.1 F.
Tue Apr 20 12:08:05 2021 50.0 F. 36.0 F.
Tue Apr 20 13:08:22 2021 51.0 F. 35.1 F.
Tue Apr 20 14:08:04 2021 51.0 F. 35.1 F.
Tue Apr 20 15:08:05 2021 45.0 F. 33.1 F.
Tue Apr 20 16:08:04 2021 39.0 F. 32.0 F.
Tue Apr 20 17:08:05 2021 39.0 F. 32.0 F.
Tue Apr 20 18:08:05 2021 37.0 F. 34.0 F.
Tue Apr 20 19:08:05 2021 34.0 F. 32.0 F.
Tue Apr 20 20:08:04 2021 33.0 F. 32.0 F.
Tue Apr 20 21:08:05 2021 34.0 F. 32.0 F.
Tue Apr 20 22:08:05 2021 34.0 F. 32.0 F.
Tue Apr 20 23:08:05 2021 35.0 F. 33.1 F.
Wed Apr 21 00:08:05 2021 35.0 F. 33.1 F.
Wed Apr 21 01:08:05 2021 34.0 F. 32.0 F.
Wed Apr 21 02:08:05 2021 33.0 F. 32.0 F.
Wed Apr 21 03:08:05 2021 32.0 F. 30.0 F.
Wed Apr 21 04:08:04 2021 32.0 F. 30.9 F.
Wed Apr 21 05:08:05 2021 32.0 F. 30.9 F.
Wed Apr 21 06:08:05 2021 32.0 F. 30.9 F.
Wed Apr 21 07:08:04 2021 31.0 F. 30.9 F.
Wed Apr 21 08:08:05 2021 31.0 F. 30.9 F.
Wed Apr 21 09:08:04 2021 34.0 F. 32.0 F.
Wed Apr 21 10:08:04 2021 40.0 F. 32.0 F.
Wed Apr 21 11:08:05 2021 45.0 F. 30.9 F.
Wed Apr 21 12:08:05 2021 48.0 F. 26.1 F.
Wed Apr 21 13:08:05 2021 49.0 F. 23.0 F.
Wed Apr 21 14:08:04 2021 51.0 F. 23.0 F.
Wed Apr 21 15:08:05 2021 52.0 F. 19.9 F.
Wed Apr 21 16:08:05 2021 54.0 F. 19.9 F.
Wed Apr 21 17:08:05 2021 52.0 F. 21.9 F.
Wed Apr 21 18:08:05 2021 52.0 F. 21.9 F.
Wed Apr 21 19:08:04 2021 51.0 F. 24.1 F.
Wed Apr 21 20:08:05 2021 50.0 F. 26.1 F.
Wed Apr 21 21:08:04 2021 47.0 F. 30.9 F.
Wed Apr 21 22:08:08 2021 45.0 F. 30.9 F.
Wed Apr 21 23:08:05 2021 43.0 F. 30.9 F.
Thu Apr 22 00:08:05 2021 39.0 F. 33.1 F.
Thu Apr 22 01:08:05 2021 37.0 F. 32.0 F.
Thu Apr 22 02:08:05 2021 36.0 F. 33.1 F.
Thu Apr 22 03:08:04 2021 33.0 F. 32.0 F.
Thu Apr 22 04:08:05 2021 33.0 F. 28.9 F.
Thu Apr 22 05:08:04 2021 32.0 F. 30.0 F.
Thu Apr 22 06:08:04 2021 32.0 F. 30.0 F.
Thu Apr 22 07:08:05 2021 33.0 F. 30.9 F.
Thu Apr 22 08:08:05 2021 39.0 F. 30.9 F.
Thu Apr 22 09:08:04 2021 44.0 F. 30.0 F.
Thu Apr 22 10:08:05 2021 49.0 F. 21.9 F.
Thu Apr 22 11:08:05 2021 51.0 F. 19.9 F.
Thu Apr 22 12:08:05 2021 51.0 F. 19.9 F.
Thu Apr 22 13:08:04 2021 54.0 F. 19.9 F.
Thu Apr 22 14:08:05 2021 54.0 F. 19.9 F.
Thu Apr 22 15:08:05 2021 54.0 F. 21.0 F.
Thu Apr 22 16:08:05 2021 56.0 F. 23.0 F.
Thu Apr 22 17:08:05 2021 57.0 F. 23.0 F.
Thu Apr 22 18:08:05 2021 56.0 F. 23.0 F.
Thu Apr 22 19:08:05 2021 56.0 F. 23.0 F.
Thu Apr 22 20:08:05 2021 56.0 F. 23.0 F.
Thu Apr 22 21:08:05 2021 48.0 F. 30.9 F.
Thu Apr 22 22:08:05 2021 48.0 F. 30.9 F.
Thu Apr 22 23:08:04 2021 49.0 F. 30.9 F.
Fri Apr 23 00:08:04 2021 49.0 F. 30.9 F.
Fri Apr 23 01:08:05 2021 48.0 F. 34.0 F.
Fri Apr 23 02:08:04 2021 48.0 F. 37.0 F.
Fri Apr 23 03:08:05 2021 47.0 F. 37.9 F.
Fri Apr 23 04:08:04 2021 47.0 F. 37.0 F.
Fri Apr 23 05:08:04 2021 49.0 F. 33.1 F.
Fri Apr 23 06:08:05 2021 45.0 F. 39.9 F.
Fri Apr 23 07:08:05 2021 45.0 F. 39.9 F.
Fri Apr 23 08:08:04 2021 46.0 F. 41.0 F.
Fri Apr 23 09:08:04 2021 46.0 F. 41.0 F.
Fri Apr 23 10:08:05 2021 48.0 F. 41.0 F.
Fri Apr 23 11:08:05 2021 50.0 F. 39.9 F.
Fri Apr 23 12:08:04 2021 55.0 F. 39.9 F.
Fri Apr 23 13:08:05 2021 57.0 F. 39.9 F.
Fri Apr 23 14:08:05 2021 57.0 F. 39.9 F.
Fri Apr 23 15:08:04 2021 60.0 F. 42.1 F.
Fri Apr 23 16:08:05 2021 60.0 F. 42.1 F.
Fri Apr 23 17:08:04 2021 64.0 F. 44.1 F.
Fri Apr 23 18:08:04 2021 64.0 F. 44.1 F.
Fri Apr 23 19:08:05 2021 63.0 F. 44.1 F.
Fri Apr 23 20:08:05 2021 62.0 F. 44.1 F.
Fri Apr 23 21:08:05 2021 59.0 F. 45.0 F.
Fri Apr 23 22:08:05 2021 59.0 F. 44.1 F.
Fri Apr 23 23:08:04 2021 58.0 F. 43.0 F.
Sat Apr 24 00:08:04 2021 58.0 F. 43.0 F.
Sat Apr 24 01:08:04 2021 57.0 F. 44.1 F.
Sat Apr 24 02:08:05 2021 58.0 F. 43.0 F.
Sat Apr 24 03:08:05 2021 57.0 F. 44.1 F.
Sat Apr 24 04:08:05 2021 52.0 F. 50.0 F.
Sat Apr 24 05:08:04 2021 52.0 F. 50.0 F.
Sat Apr 24 06:08:05 2021 51.0 F. 48.9 F.
Sat Apr 24 07:08:04 2021 51.0 F. 48.9 F.
Sat Apr 24 08:08:04 2021 50.0 F. 48.9 F.
Sat Apr 24 09:08:05 2021 51.0 F. 48.9 F.
Sat Apr 24 10:08:04 2021 51.0 F. 48.9 F.
Sat Apr 24 11:08:04 2021 51.0 F. 48.9 F.
Sat Apr 24 12:08:04 2021 51.0 F. 50.0 F.
Sat Apr 24 13:08:05 2021 52.0 F. 50.0 F.
Sat Apr 24 14:08:04 2021 53.0 F. 53.1 F.
Sat Apr 24 15:08:04 2021 54.0 F. 52.0 F.
Sat Apr 24 16:08:05 2021 54.0 F. 52.0 F.
Sat Apr 24 17:08:04 2021 57.0 F. 53.1 F.
Sat Apr 24 18:08:04 2021 57.0 F. 53.1 F.
Sat Apr 24 19:08:04 2021 56.0 F. 52.0 F.
Sat Apr 24 20:08:05 2021 56.0 F. 52.0 F.
Sat Apr 24 21:08:05 2021 55.0 F. 50.0 F.
Sat Apr 24 22:08:05 2021 51.0 F. 50.0 F.
Sat Apr 24 23:08:04 2021 51.0 F. 48.9 F.
Sun Apr 25 00:08:04 2021 49.0 F. 48.0 F.
Sun Apr 25 01:08:04 2021 47.0 F. 46.9 F.
Sun Apr 25 02:08:04 2021 48.0 F. 46.9 F.
Sun Apr 25 03:08:04 2021 48.0 F. 46.9 F.
Sun Apr 25 04:08:05 2021 44.0 F. 43.0 F.
Sun Apr 25 05:08:05 2021 44.0 F. 43.0 F.
Sun Apr 25 06:08:04 2021 41.0 F. 39.9 F.
Sun Apr 25 07:08:05 2021 40.0 F. 39.0 F.
Sun Apr 25 08:08:05 2021 42.0 F. 42.1 F.
Sun Apr 25 09:08:04 2021 53.0 F. 45.0 F.
Sun Apr 25 10:08:05 2021 56.0 F. 43.0 F.
Sun Apr 25 11:08:05 2021 59.0 F. 43.0 F.
Sun Apr 25 12:08:05 2021 62.0 F. 44.1 F.
Sun Apr 25 13:08:05 2021 62.0 F. 44.1 F.
Sun Apr 25 14:08:04 2021 64.0 F. 43.0 F.
Sun Apr 25 15:08:04 2021 65.0 F. 42.1 F.
Sun Apr 25 16:08:04 2021 66.0 F. 44.1 F.
Sun Apr 25 17:08:04 2021 67.0 F. 41.0 F.
Sun Apr 25 18:08:05 2021 68.0 F. 42.1 F.
Sun Apr 25 19:08:05 2021 68.0 F. 44.1 F.
Sun Apr 25 20:08:04 2021 66.0 F. 46.9 F.
Sun Apr 25 21:08:04 2021 55.0 F. 48.0 F.
Sun Apr 25 22:08:05 2021 55.0 F. 48.0 F.
Sun Apr 25 23:08:05 2021 58.0 F. 45.0 F.
Mon Apr 26 00:08:04 2021 56.0 F. 44.1 F.
Mon Apr 26 01:08:05 2021 55.0 F. 44.1 F.
Mon Apr 26 02:08:05 2021 52.0 F. 43.0 F.
Mon Apr 26 03:08:04 2021 50.0 F. 42.1 F.
Mon Apr 26 04:08:05 2021 51.0 F. 43.0 F.
Mon Apr 26 05:08:05 2021 49.0 F. 43.0 F.
Mon Apr 26 06:08:05 2021 49.0 F. 42.1 F.
Mon Apr 26 07:08:04 2021 51.0 F. 43.0 F.
Mon Apr 26 08:08:04 2021 57.0 F. 44.1 F.
Mon Apr 26 09:08:05 2021 57.0 F. 44.1 F.
Mon Apr 26 10:08:04 2021 62.0 F. 45.0 F.
Mon Apr 26 11:08:05 2021 68.0 F. 46.9 F.
Mon Apr 26 12:08:05 2021 73.0 F. 48.9 F.
Mon Apr 26 13:08:04 2021 73.0 F. 48.9 F.
Mon Apr 26 14:08:05 2021 76.0 F. 48.9 F.
Mon Apr 26 15:08:05 2021 78.0 F. 48.0 F.
Mon Apr 26 16:08:04 2021 78.0 F. 48.0 F.
Mon Apr 26 17:08:05 2021 76.0 F. 48.0 F.
Mon Apr 26 18:08:05 2021 76.0 F. 48.0 F.
Mon Apr 26 19:08:05 2021 73.0 F. 50.0 F.
Mon Apr 26 20:08:05 2021 69.0 F. 51.1 F.
Mon Apr 26 21:08:05 2021 69.0 F. 51.1 F.
Mon Apr 26 22:08:05 2021 67.0 F. 51.1 F.
Mon Apr 26 23:08:04 2021 67.0 F. 51.1 F.
Tue Apr 27 00:08:05 2021 66.0 F. 51.1 F.
Tue Apr 27 01:08:05 2021 63.0 F. 51.1 F.
Tue Apr 27 02:08:04 2021 64.0 F. 51.1 F.
Tue Apr 27 03:08:04 2021 63.0 F. 51.1 F.
Tue Apr 27 04:08:04 2021 65.0 F. 51.1 F.
Tue Apr 27 05:08:05 2021 65.0 F. 51.1 F.
Tue Apr 27 06:08:05 2021 64.0 F. 51.1 F.
Tue Apr 27 07:08:05 2021 65.0 F. 52.0 F.
Tue Apr 27 08:08:04 2021 65.0 F. 52.0 F.
Tue Apr 27 09:08:04 2021 70.0 F. 55.9 F.
Tue Apr 27 10:08:05 2021 70.0 F. 55.9 F.
Tue Apr 27 11:08:04 2021 73.0 F. 57.0 F.
Tue Apr 27 12:08:04 2021 75.0 F. 57.0 F.
Tue Apr 27 13:08:05 2021 78.0 F. 61.0 F.
Tue Apr 27 14:08:04 2021 80.0 F. 61.0 F.
Tue Apr 27 15:08:05 2021 81.0 F. 59.0 F.
Tue Apr 27 16:08:04 2021 82.0 F. 60.1 F.
Tue Apr 27 17:08:04 2021 82.0 F. 60.1 F.
Tue Apr 27 18:08:04 2021 80.0 F. 61.0 F.
Tue Apr 27 19:08:05 2021 77.0 F. 63.0 F.
Tue Apr 27 20:08:05 2021 75.0 F. 63.0 F.
Tue Apr 27 21:08:05 2021 75.0 F. 63.0 F.
Tue Apr 27 22:08:05 2021 74.0 F. 62.1 F.
Tue Apr 27 23:08:04 2021 73.0 F. 63.0 F.
Wed Apr 28 00:08:05 2021 73.0 F. 64.0 F.
Wed Apr 28 01:08:04 2021 72.0 F. 64.9 F.
Wed Apr 28 02:08:04 2021 72.0 F. 64.9 F.
Wed Apr 28 03:08:05 2021 72.0 F. 64.9 F.
Wed Apr 28 04:08:05 2021 70.0 F. 64.9 F.
Wed Apr 28 05:08:04 2021 70.0 F. 64.9 F.
Wed Apr 28 06:08:05 2021 71.0 F. 66.0 F.
Wed Apr 28 07:08:04 2021 70.0 F. 66.0 F.
Wed Apr 28 08:08:05 2021 70.0 F. 66.0 F.
Wed Apr 28 09:08:04 2021 71.0 F. 66.0 F.
Wed Apr 28 10:08:04 2021 70.0 F. 66.9 F.
Wed Apr 28 11:08:04 2021 70.0 F. 66.9 F.
Wed Apr 28 12:08:05 2021 71.0 F. 68.0 F.
Wed Apr 28 13:08:04 2021 72.0 F. 68.0 F.
Wed Apr 28 14:08:05 2021 72.0 F. 66.9 F.
Wed Apr 28 15:08:05 2021 71.0 F. 66.9 F.
Wed Apr 28 16:08:05 2021 71.0 F. 66.9 F.
Wed Apr 28 17:08:04 2021 71.0 F. 68.0 F.
Wed Apr 28 18:08:05 2021 68.0 F. 64.9 F.
Wed Apr 28 19:08:05 2021 68.0 F. 64.0 F.
Wed Apr 28 20:08:04 2021 68.0 F. 64.0 F.
Wed Apr 28 21:08:05 2021 67.0 F. 64.0 F.
Wed Apr 28 22:08:05 2021 66.0 F. 64.0 F.
Wed Apr 28 23:08:07 2021 66.0 F. 64.0 F.
Thu Apr 29 00:08:04 2021 66.0 F. 64.0 F.
Thu Apr 29 01:08:04 2021 67.0 F. 64.0 F.
Thu Apr 29 02:08:04 2021 66.0 F. 66.0 F.
Thu Apr 29 03:08:04 2021 66.0 F. 66.0 F.
Thu Apr 29 04:08:04 2021 69.0 F. 66.9 F.
Thu Apr 29 05:08:05 2021 69.0 F. 66.9 F.
Thu Apr 29 06:08:05 2021 66.0 F. 66.0 F.
Thu Apr 29 07:08:05 2021 66.0 F. 66.0 F.
Thu Apr 29 08:08:05 2021 66.0 F. 64.9 F.
Thu Apr 29 09:08:05 2021 66.0 F. 64.9 F.
Thu Apr 29 10:08:04 2021 66.0 F. 64.9 F.
Thu Apr 29 11:08:05 2021 66.0 F. 64.9 F.
Thu Apr 29 12:08:04 2021 67.0 F. 63.0 F.
Thu Apr 29 13:08:05 2021 67.0 F. 62.1 F.
Thu Apr 29 14:08:05 2021 67.0 F. 62.1 F.
Thu Apr 29 15:08:06 2021 68.0 F. 61.0 F.
Thu Apr 29 16:08:04 2021 65.0 F. 61.0 F.
Thu Apr 29 17:08:05 2021 68.0 F. 60.1 F.
Thu Apr 29 18:08:04 2021 69.0 F. 57.0 F.
Thu Apr 29 19:08:04 2021 68.0 F. 57.0 F.
Thu Apr 29 20:08:05 2021 63.0 F. 55.9 F.
Thu Apr 29 21:08:04 2021 61.0 F. 57.0 F.
Thu Apr 29 22:08:05 2021 57.0 F. 55.0 F.
Thu Apr 29 23:08:05 2021 56.0 F. 55.0 F.
Fri Apr 30 00:08:04 2021 56.0 F. 55.0 F.
Fri Apr 30 01:08:04 2021 53.0 F. 52.0 F.
Fri Apr 30 02:08:04 2021 53.0 F. 52.0 F.
Fri Apr 30 03:08:04 2021 53.0 F. 51.1 F.
Fri Apr 30 04:08:04 2021 54.0 F. 50.0 F.
Fri Apr 30 05:08:05 2021 53.0 F. 48.0 F.
Fri Apr 30 06:08:05 2021 53.0 F. 46.0 F.
Fri Apr 30 07:08:04 2021 53.0 F. 48.0 F.
Fri Apr 30 08:08:04 2021 59.0 F. 46.9 F.
Fri Apr 30 09:08:05 2021 64.0 F. 46.9 F.
Fri Apr 30 10:08:05 2021 67.0 F. 46.0 F.
Fri Apr 30 11:08:04 2021 67.0 F. 46.0 F.
Fri Apr 30 12:08:04 2021 72.0 F. 46.0 F.
Fri Apr 30 13:08:05 2021 75.0 F. 42.1 F.
Fri Apr 30 14:08:05 2021 75.0 F. 42.1 F.
Fri Apr 30 15:08:04 2021 76.0 F. 44.1 F.
Fri Apr 30 16:08:05 2021 77.0 F. 44.1 F.
Fri Apr 30 17:08:04 2021 76.0 F. 42.1 F.
Fri Apr 30 18:08:07 2021 76.0 F. 44.1 F.
Fri Apr 30 19:08:04 2021 76.0 F. 44.1 F.
Fri Apr 30 20:08:04 2021 68.0 F. 50.0 F.
Fri Apr 30 21:08:05 2021 62.0 F. 50.0 F.
Fri Apr 30 22:08:04 2021 60.0 F. 51.1 F.
Fri Apr 30 23:08:05 2021 60.0 F. 50.0 F.
Sat May 1 00:08:05 2021 56.0 F. 48.0 F.
Sat May 1 01:08:05 2021 56.0 F. 48.0 F.
Sat May 1 02:08:05 2021 53.0 F. 48.9 F.
Sat May 1 03:08:04 2021 54.0 F. 46.0 F.
Sat May 1 04:08:05 2021 54.0 F. 46.0 F.
Sat May 1 05:08:04 2021 53.0 F. 46.0 F.
Sat May 1 06:08:04 2021 52.0 F. 45.0 F.
Sat May 1 07:08:05 2021 53.0 F. 44.1 F.
Sat May 1 08:08:05 2021 53.0 F. 44.1 F.
Sat May 1 09:08:05 2021 57.0 F. 43.0 F.
Sat May 1 10:08:05 2021 65.0 F. 45.0 F.
Sat May 1 11:08:05 2021 69.0 F. 46.0 F.
Sat May 1 12:08:05 2021 69.0 F. 46.0 F.
Sat May 1 13:08:05 2021 72.0 F. 48.9 F.
Sat May 1 14:08:05 2021 77.0 F. 52.0 F.
Sat May 1 15:08:04 2021 79.0 F. 54.0 F.
Sat May 1 16:08:04 2021 79.0 F. 54.0 F.
Sat May 1 17:08:05 2021 78.0 F. 54.0 F.
Sat May 1 18:08:05 2021 77.0 F. 55.0 F.
Sat May 1 19:08:04 2021 74.0 F. 53.1 F.
Sat May 1 20:08:05 2021 71.0 F. 52.0 F.
Sat May 1 21:08:05 2021 66.0 F. 53.1 F.
Sat May 1 22:08:05 2021 62.0 F. 53.1 F.
Sat May 1 23:08:05 2021 62.0 F. 53.1 F.
Sun May 2 00:08:04 2021 62.0 F. 53.1 F.
Sun May 2 01:08:05 2021 62.0 F. 54.0 F.
Sun May 2 02:08:05 2021 62.0 F. 54.0 F.
Sun May 2 03:08:05 2021 60.0 F. 53.1 F.
Sun May 2 04:08:05 2021 61.0 F. 53.1 F.
Sun May 2 05:08:04 2021 61.0 F. 53.1 F.
Sun May 2 06:08:05 2021 62.0 F. 53.1 F.
Sun May 2 07:08:04 2021 63.0 F. 54.0 F.
Sun May 2 08:08:05 2021 64.0 F. 55.0 F.
Sun May 2 09:08:05 2021 65.0 F. 55.9 F.
Sun May 2 10:08:04 2021 67.0 F. 55.9 F.
Sun May 2 11:08:04 2021 67.0 F. 55.9 F.
Sun May 2 12:08:05 2021 67.0 F. 57.0 F.
Sun May 2 13:08:05 2021 67.0 F. 57.0 F.
Sun May 2 14:08:05 2021 68.0 F. 57.0 F.
Sun May 2 15:08:04 2021 68.0 F. 57.0 F.
Sun May 2 16:08:04 2021 69.0 F. 55.9 F.
Sun May 2 17:08:04 2021 68.0 F. 55.9 F.
Sun May 2 18:08:04 2021 65.0 F. 57.0 F.
Sun May 2 19:08:04 2021 62.0 F. 59.0 F.
Sun May 2 20:08:04 2021 61.0 F. 59.0 F.
Sun May 2 21:08:04 2021 61.0 F. 59.0 F.
Sun May 2 22:08:05 2021 61.0 F. 59.0 F.
Sun May 2 23:08:04 2021 61.0 F. 59.0 F.
Mon May 3 00:08:05 2021 61.0 F. 59.0 F.
Mon May 3 01:08:05 2021 61.0 F. 60.1 F.
Mon May 3 02:08:04 2021 61.0 F. 60.1 F.
Mon May 3 03:08:04 2021 61.0 F. 60.1 F.
Mon May 3 04:08:05 2021 62.0 F. 60.1 F.
Mon May 3 05:08:04 2021 62.0 F. 61.0 F.
Mon May 3 06:08:04 2021 62.0 F. 61.0 F.
Mon May 3 07:08:05 2021 62.0 F. 62.1 F.
Mon May 3 08:08:04 2021 64.0 F. 62.1 F.
Mon May 3 09:08:04 2021 65.0 F. 62.1 F.
Mon May 3 10:08:05 2021 65.0 F. 62.1 F.
Mon May 3 11:08:05 2021 67.0 F. 62.1 F.
Mon May 3 12:08:04 2021 71.0 F. 64.0 F.
Mon May 3 13:08:04 2021 75.0 F. 64.0 F.
Mon May 3 14:08:05 2021 75.0 F. 64.0 F.
Mon May 3 15:08:05 2021 79.0 F. 64.9 F.
Mon May 3 16:08:04 2021 80.0 F. 64.9 F.
Mon May 3 17:08:05 2021 79.0 F. 66.0 F.
Mon May 3 18:08:04 2021 78.0 F. 66.9 F.
Mon May 3 19:08:05 2021 76.0 F. 66.0 F.
Mon May 3 20:08:04 2021 76.0 F. 66.0 F.
Mon May 3 21:08:05 2021 73.0 F. 66.9 F.
Mon May 3 22:08:05 2021 72.0 F. 66.9 F.
Mon May 3 23:08:04 2021 68.0 F. 66.0 F.
Tue May 4 00:08:04 2021 68.0 F. 66.0 F.
Tue May 4 01:08:05 2021 68.0 F. 66.0 F.
Tue May 4 02:08:04 2021 69.0 F. 64.0 F.
Tue May 4 03:08:04 2021 67.0 F. 62.1 F.
Tue May 4 04:08:05 2021 67.0 F. 62.1 F.
Tue May 4 05:08:05 2021 64.0 F. 63.0 F.
Tue May 4 06:08:05 2021 63.0 F. 63.0 F.
Tue May 4 07:08:05 2021 63.0 F. 62.1 F.
Tue May 4 08:08:05 2021 63.0 F. 62.1 F.
Tue May 4 09:08:05 2021 64.0 F. 61.0 F.
Tue May 4 10:08:05 2021 64.0 F. 61.0 F.
Tue May 4 11:08:04 2021 64.0 F. 61.0 F.
Tue May 4 12:08:05 2021 65.0 F. 60.1 F.
Tue May 4 13:08:05 2021 67.0 F. 61.0 F.
Tue May 4 14:08:05 2021 67.0 F. 61.0 F.
Tue May 4 15:08:05 2021 65.0 F. 59.0 F.
Tue May 4 16:08:04 2021 65.0 F. 59.0 F.
Tue May 4 17:08:05 2021 62.0 F. 57.9 F.
Tue May 4 18:08:05 2021 61.0 F. 57.0 F.
Tue May 4 19:08:05 2021 58.0 F. 55.0 F.
Tue May 4 20:08:05 2021 56.0 F. 55.0 F.
Tue May 4 21:08:05 2021 56.0 F. 54.0 F.
Tue May 4 22:08:05 2021 56.0 F. 54.0 F.
Tue May 4 23:08:05 2021 56.0 F. 53.1 F.
Wed May 5 00:08:04 2021 55.0 F. 53.1 F.
Wed May 5 01:08:04 2021 54.0 F. 52.0 F.
Wed May 5 02:08:04 2021 52.0 F. 51.1 F.
Wed May 5 03:08:05 2021 51.0 F. 50.0 F.
Wed May 5 04:08:04 2021 50.0 F. 48.9 F.
Wed May 5 05:08:05 2021 50.0 F. 48.0 F.
Wed May 5 06:08:05 2021 50.0 F. 48.0 F.
Wed May 5 07:08:04 2021 50.0 F. 48.9 F.
Wed May 5 08:08:05 2021 53.0 F. 51.1 F.
Wed May 5 09:08:04 2021 53.0 F. 51.1 F.
Wed May 5 10:08:04 2021 57.0 F. 48.9 F.
Wed May 5 11:08:04 2021 62.0 F. 46.9 F.
Wed May 5 12:08:05 2021 62.0 F. 46.9 F.
Wed May 5 13:08:04 2021 63.0 F. 46.0 F.
Wed May 5 14:08:04 2021 65.0 F. 44.1 F.
Wed May 5 15:08:05 2021 66.0 F. 46.0 F.
Wed May 5 16:08:04 2021 66.0 F. 46.0 F.
Wed May 5 17:08:04 2021 67.0 F. 43.0 F.
Wed May 5 18:08:04 2021 65.0 F. 43.0 F.
Wed May 5 19:08:05 2021 65.0 F. 45.0 F.
Wed May 5 20:08:05 2021 60.0 F. 46.9 F.
Wed May 5 21:08:04 2021 60.0 F. 46.9 F.
Wed May 5 22:08:05 2021 53.0 F. 48.9 F.
Wed May 5 23:08:05 2021 53.0 F. 48.9 F.
Thu May 6 00:08:05 2021 52.0 F. 48.9 F.
Thu May 6 01:08:04 2021 51.0 F. 48.9 F.
Thu May 6 02:08:04 2021 50.0 F. 48.0 F.
Thu May 6 03:08:05 2021 50.0 F. 48.0 F.
Thu May 6 04:08:05 2021 51.0 F. 48.0 F.
Thu May 6 05:08:05 2021 50.0 F. 48.0 F.
Thu May 6 06:08:05 2021 50.0 F. 48.0 F.
Thu May 6 07:08:05 2021 50.0 F. 46.9 F.
Thu May 6 08:08:04 2021 51.0 F. 48.0 F.
Thu May 6 09:08:05 2021 56.0 F. 48.9 F.
Thu May 6 10:08:05 2021 61.0 F. 51.1 F.
Thu May 6 11:08:05 2021 63.0 F. 48.9 F.
Thu May 6 12:08:05 2021 67.0 F. 48.9 F.
Thu May 6 13:08:05 2021 67.0 F. 48.9 F.
Thu May 6 14:08:05 2021 58.0 F. 54.0 F.
Thu May 6 15:08:05 2021 58.0 F. 54.0 F.
Thu May 6 16:08:05 2021 62.0 F. 54.0 F.
Thu May 6 17:08:05 2021 66.0 F. 51.1 F.
Thu May 6 18:08:05 2021 68.0 F. 48.0 F.
Thu May 6 19:08:25 2021
Thu May 6 20:08:05 2021 57.0 F. 42.1 F.
Thu May 6 21:08:05 2021 54.0 F. 42.1 F.
Thu May 6 22:08:05 2021 52.0 F. 43.0 F.
Thu May 6 23:08:05 2021 49.0 F. 46.0 F.
Fri May 7 00:08:05 2021 47.0 F. 44.1 F.
Fri May 7 01:08:05 2021 48.0 F. 43.0 F.
Fri May 7 02:08:05 2021 46.0 F. 42.1 F.
Fri May 7 03:08:05 2021 43.0 F. 42.1 F.
Fri May 7 04:08:05 2021 43.0 F. 42.1 F.
Fri May 7 05:08:04 2021 43.0 F. 39.9 F.
Fri May 7 06:08:05 2021 43.0 F. 39.0 F.
Fri May 7 07:08:05 2021 47.0 F. 39.9 F.
Fri May 7 08:08:04 2021 47.0 F. 39.9 F.
Fri May 7 09:08:04 2021 52.0 F. 41.0 F.
Fri May 7 10:08:05 2021 57.0 F. 42.1 F.
Fri May 7 11:08:04 2021 62.0 F. 42.1 F.
Fri May 7 12:08:05 2021 67.0 F. 39.9 F.
Fri May 7 13:08:05 2021 69.0 F. 39.0 F.
Fri May 7 14:08:05 2021 70.0 F. 39.0 F.
Fri May 7 15:08:04 2021 71.0 F. 37.9 F.
Fri May 7 16:08:05 2021 71.0 F. 37.9 F.
Fri May 7 17:08:05 2021 71.0 F. 39.9 F.
Fri May 7 18:08:04 2021 71.0 F. 41.0 F.
Fri May 7 19:08:04 2021 69.0 F. 44.1 F.
Fri May 7 20:08:05 2021 66.0 F. 44.1 F.
Fri May 7 21:08:04 2021 62.0 F. 45.0 F.
Fri May 7 22:08:05 2021 59.0 F. 45.0 F.
Fri May 7 23:08:04 2021 60.0 F. 46.9 F.
Sat May 8 00:08:04 2021 61.0 F. 45.0 F.
Sat May 8 01:08:05 2021 61.0 F. 45.0 F.
Sat May 8 02:08:05 2021 61.0 F. 41.0 F.
Sat May 8 03:08:04 2021 57.0 F. 41.0 F.
Sat May 8 04:08:05 2021 56.0 F. 41.0 F.
Sat May 8 05:08:05 2021 53.0 F. 41.0 F.
Sat May 8 06:08:05 2021 52.0 F. 39.0 F.
Sat May 8 07:08:05 2021 52.0 F. 39.0 F.
Sat May 8 08:08:04 2021 52.0 F. 39.0 F.
Sat May 8 09:08:05 2021 52.0 F. 39.0 F.
Sat May 8 10:08:05 2021 52.0 F. 39.9 F.
Sat May 8 11:08:04 2021 52.0 F. 39.9 F.
Sat May 8 12:08:05 2021 53.0 F. 39.9 F.
Sat May 8 13:08:04 2021 54.0 F. 39.9 F.
Sat May 8 14:08:05 2021 54.0 F. 39.9 F.
Sat May 8 15:08:04 2021 56.0 F. 43.0 F.
Sat May 8 16:08:05 2021 56.0 F. 43.0 F.
Sat May 8 17:08:05 2021 59.0 F. 46.0 F.
Sat May 8 18:08:04 2021 60.0 F. 48.9 F.
Sat May 8 19:08:05 2021 61.0 F. 52.0 F.
Sat May 8 20:08:05 2021 61.0 F. 52.0 F.
Sat May 8 21:08:05 2021 58.0 F. 51.1 F.
Sat May 8 22:08:05 2021 58.0 F. 51.1 F.
Sat May 8 23:08:05 2021 58.0 F. 51.1 F.
Sun May 9 00:08:05 2021 57.0 F. 51.1 F.
Sun May 9 01:08:05 2021 57.0 F. 52.0 F.
Sun May 9 02:08:04 2021 57.0 F. 52.0 F.
Sun May 9 03:08:04 2021 57.0 F. 52.0 F.
Sun May 9 04:08:05 2021 58.0 F. 54.0 F.
Sun May 9 05:08:05 2021 68.0 F. 57.0 F.
Sun May 9 06:08:05 2021 69.0 F. 57.0 F.
Sun May 9 07:08:04 2021 69.0 F. 57.0 F.
Sun May 9 08:08:05 2021 66.0 F. 60.1 F.
Sun May 9 09:08:04 2021 64.0 F. 62.1 F.
Sun May 9 10:08:04 2021 64.0 F. 61.0 F.
Sun May 9 11:08:04 2021 65.0 F. 62.1 F.
Sun May 9 12:08:05 2021 58.0 F. 55.9 F.
Sun May 9 13:08:04 2021 58.0 F. 55.9 F.
Sun May 9 14:08:05 2021 54.0 F. 48.9 F.
Sun May 9 15:08:05 2021 52.0 F. 46.9 F.
Sun May 9 16:08:05 2021 53.0 F. 46.9 F.
Sun May 9 17:08:04 2021 52.0 F. 46.9 F.
Sun May 9 18:08:05 2021 52.0 F. 45.0 F.
Sun May 9 19:08:04 2021 51.0 F. 44.1 F.
Sun May 9 20:08:04 2021 51.0 F. 44.1 F.
Sun May 9 21:08:04 2021 51.0 F. 44.1 F.
Sun May 9 22:08:05 2021 51.0 F. 44.1 F.
Sun May 9 23:08:05 2021 50.0 F. 42.1 F.
Mon May 10 00:08:05 2021 50.0 F. 42.1 F.
Mon May 10 01:08:05 2021 49.0 F. 42.1 F.
Mon May 10 02:08:05 2021 49.0 F. 42.1 F.
Mon May 10 03:08:04 2021 48.0 F. 42.1 F.
Mon May 10 04:08:05 2021 46.0 F. 41.0 F.
Mon May 10 05:08:04 2021 42.0 F. 39.9 F.
Mon May 10 06:08:05 2021 41.0 F. 39.0 F.
Mon May 10 07:08:05 2021 44.0 F. 41.0 F.
Mon May 10 08:08:05 2021 48.0 F. 42.1 F.
Mon May 10 09:08:05 2021 50.0 F. 43.0 F.
Mon May 10 10:08:05 2021 54.0 F. 44.1 F.
Mon May 10 11:08:05 2021 57.0 F. 43.0 F.
Mon May 10 12:08:05 2021 58.0 F. 43.0 F.
Mon May 10 13:08:04 2021 58.0 F. 41.0 F.
Mon May 10 14:08:04 2021 58.0 F. 41.0 F.
Mon May 10 15:08:04 2021 59.0 F. 41.0 F.
Mon May 10 16:08:04 2021 58.0 F. 42.1 F.
Mon May 10 17:08:05 2021 58.0 F. 42.1 F.
Mon May 10 18:08:05 2021 59.0 F. 41.0 F.
Mon May 10 19:08:05 2021 56.0 F. 46.0 F.
Mon May 10 20:08:05 2021 55.0 F. 46.9 F.
Mon May 10 21:08:05 2021 55.0 F. 46.9 F.
Mon May 10 22:08:05 2021 54.0 F. 48.9 F.
Mon May 10 23:08:05 2021 52.0 F. 46.9 F.
Tue May 11 00:08:04 2021 49.0 F. 46.0 F.
Tue May 11 01:08:04 2021 46.0 F. 44.1 F.
Tue May 11 02:08:04 2021 43.0 F. 42.1 F.
Tue May 11 03:08:05 2021 43.0 F. 42.1 F.
Tue May 11 04:08:05 2021 42.0 F. 41.0 F.
Tue May 11 05:08:04 2021 42.0 F. 41.0 F.
Tue May 11 06:08:04 2021 40.0 F. 39.0 F.
Tue May 11 07:08:04 2021 44.0 F. 42.1 F.
Tue May 11 08:08:04 2021 49.0 F. 45.0 F.
Tue May 11 09:08:04 2021 56.0 F. 46.0 F.
Tue May 11 10:08:05 2021 56.0 F. 46.0 F.
Tue May 11 11:08:05 2021 60.0 F. 44.1 F.
Tue May 11 12:08:04 2021 63.0 F. 46.0 F.
Tue May 11 13:08:05 2021 64.0 F. 46.9 F.
Tue May 11 14:08:05 2021 65.0 F. 50.0 F.
Tue May 11 15:08:05 2021 64.0 F. 46.9 F.
Tue May 11 16:08:04 2021 63.0 F. 48.0 F.
Tue May 11 17:08:04 2021 63.0 F. 48.0 F.
Tue May 11 18:08:04 2021 61.0 F. 45.0 F.
Tue May 11 19:08:04 2021 58.0 F. 41.0 F.
Tue May 11 20:08:04 2021 57.0 F. 41.0 F.
Tue May 11 21:08:13 2021 55.0 F. 41.0 F.
Tue May 11 22:08:04 2021 55.0 F. 37.9 F.
Tue May 11 23:08:24 2021 55.0 F. 37.9 F.
Wed May 12 00:08:05 2021 55.0 F. 37.0 F.
Wed May 12 01:08:05 2021 54.0 F. 37.0 F.
Wed May 12 02:08:04 2021 53.0 F. 37.0 F.
Wed May 12 03:08:05 2021 51.0 F. 37.0 F.
Wed May 12 04:08:04 2021 48.0 F. 35.1 F.
Wed May 12 05:08:05 2021 47.0 F. 35.1 F.
Wed May 12 06:08:04 2021 47.0 F. 35.1 F.
Wed May 12 07:08:04 2021 47.0 F. 35.1 F.
Wed May 12 08:08:05 2021 47.0 F. 35.1 F.
Wed May 12 09:08:05 2021 53.0 F. 37.0 F.
Wed May 12 10:08:05 2021 56.0 F. 37.0 F.
Wed May 12 11:08:04 2021 58.0 F. 39.0 F.
Wed May 12 12:08:09 2021 60.0 F. 37.9 F.
Wed May 12 13:08:05 2021 60.0 F. 37.9 F.
Wed May 12 14:08:04 2021 63.0 F. 37.9 F.
Wed May 12 15:08:04 2021 64.0 F. 37.0 F.
Wed May 12 16:08:04 2021 64.0 F. 37.0 F.
Wed May 12 17:08:04 2021 64.0 F. 33.1 F.
Wed May 12 18:08:05 2021 64.0 F. 33.1 F.
Wed May 12 19:08:05 2021 63.0 F. 36.0 F.
Wed May 12 20:08:05 2021 59.0 F. 35.1 F.
Wed May 12 21:08:04 2021 54.0 F. 37.9 F.
Wed May 12 22:08:04 2021 51.0 F. 37.9 F.
Wed May 12 23:08:04 2021 51.0 F. 37.9 F.
Thu May 13 00:08:05 2021 49.0 F. 39.0 F.
Thu May 13 01:08:04 2021 47.0 F. 39.0 F.
Thu May 13 02:08:04 2021 43.0 F. 39.9 F.
Thu May 13 03:08:05 2021 42.0 F. 39.0 F.
Thu May 13 04:08:05 2021 41.0 F. 37.9 F.
Thu May 13 05:08:04 2021 41.0 F. 37.9 F.
Thu May 13 06:08:04 2021 41.0 F. 37.9 F.
Thu May 13 07:08:05 2021 40.0 F. 37.9 F.
Thu May 13 08:08:04 2021 42.0 F. 39.9 F.
Thu May 13 09:08:05 2021 53.0 F. 41.0 F.
Thu May 13 10:08:04 2021 53.0 F. 41.0 F.
Thu May 13 11:08:05 2021 58.0 F. 42.1 F.
Thu May 13 12:08:05 2021 63.0 F. 42.1 F.
Thu May 13 13:08:04 2021 64.0 F. 35.1 F.
Thu May 13 14:08:05 2021 64.0 F. 35.1 F.
Thu May 13 15:08:05 2021 65.0 F. 36.0 F.
Thu May 13 16:08:04 2021 67.0 F. 34.0 F.
Thu May 13 17:08:05 2021 68.0 F. 32.0 F.
Thu May 13 18:08:05 2021 67.0 F. 32.0 F.
Thu May 13 19:08:05 2021 67.0 F. 32.0 F.
Thu May 13 20:08:05 2021 67.0 F. 32.0 F.
Thu May 13 21:08:05 2021 61.0 F. 37.9 F.
Thu May 13 22:08:05 2021 50.0 F. 39.9 F.
Thu May 13 23:08:05 2021 48.0 F. 41.0 F.
Fri May 14 00:08:04 2021 46.0 F. 42.1 F.
Fri May 14 01:08:05 2021 46.0 F. 42.1 F.
Fri May 14 02:08:05 2021 43.0 F. 41.0 F.
Fri May 14 03:08:04 2021 43.0 F. 41.0 F.
Fri May 14 04:08:04 2021 42.0 F. 39.9 F.
Fri May 14 05:08:05 2021 41.0 F. 39.0 F.
Fri May 14 06:08:05 2021 40.0 F. 37.9 F.
Fri May 14 07:08:05 2021 40.0 F. 37.9 F.
Fri May 14 08:08:04 2021 43.0 F. 39.9 F.
Fri May 14 09:08:04 2021 57.0 F. 46.9 F.
Fri May 14 10:08:05 2021 57.0 F. 46.9 F.
Fri May 14 11:08:25 2021 57.0 F. 46.9 F.
Fri May 14 12:08:04 2021 67.0 F. 37.9 F.
Fri May 14 13:08:06 2021 68.0 F. 32.0 F.
Fri May 14 14:08:05 2021 68.0 F. 32.0 F.
Fri May 14 15:08:05 2021 71.0 F. 32.0 F.
Fri May 14 16:08:04 2021 72.0 F. 34.0 F.
Fri May 14 17:08:04 2021 71.0 F. 30.9 F.
Fri May 14 18:08:04 2021 71.0 F. 30.9 F.
Fri May 14 19:08:04 2021 71.0 F. 30.9 F.
Fri May 14 20:08:05 2021 65.0 F. 37.0 F.
Fri May 14 21:08:04 2021 65.0 F. 37.0 F.
Fri May 14 22:08:04 2021 57.0 F. 42.1 F.
Fri May 14 23:08:04 2021 54.0 F. 44.1 F.
Sat May 15 00:08:05 2021 51.0 F. 45.0 F.
Sat May 15 01:08:06 2021 50.0 F. 44.1 F.
Sat May 15 02:08:06 2021 47.0 F. 44.1 F.
Sat May 15 03:08:06 2021 46.0 F. 43.0 F.
Sat May 15 04:08:06 2021 47.0 F. 44.1 F.
Sat May 15 05:08:07 2021 47.0 F. 44.1 F.
Sat May 15 06:08:05 2021 46.0 F. 44.1 F.
Sat May 15 07:08:06 2021 49.0 F. 45.0 F.
Sat May 15 08:08:06 2021 53.0 F. 46.9 F.
Sat May 15 09:08:07 2021 55.0 F. 46.0 F.
Sat May 15 10:08:05 2021 55.0 F. 46.0 F.
Sat May 15 11:08:05 2021 63.0 F. 43.0 F.
Sat May 15 12:08:06 2021 63.0 F. 43.0 F.
Sat May 15 13:08:07 2021 65.0 F. 42.1 F.
Sat May 15 14:08:06 2021 65.0 F. 44.1 F.
Sat May 15 15:08:06 2021 66.0 F. 43.0 F.
Sat May 15 16:08:05 2021 64.0 F. 48.9 F.
Sat May 15 17:08:05 2021 63.0 F. 51.1 F.
Sat May 15 18:08:04 2021 63.0 F. 51.1 F.
Sat May 15 19:08:04 2021 61.0 F. 48.9 F.
Sat May 15 20:08:04 2021 61.0 F. 48.9 F.
Sat May 15 21:08:04 2021 59.0 F. 48.0 F.
Sat May 15 22:08:04 2021 58.0 F. 48.0 F.
Sat May 15 23:08:04 2021 57.0 F. 50.0 F.
Sun May 16 00:08:05 2021 55.0 F. 52.0 F.
Sun May 16 01:08:04 2021 55.0 F. 51.1 F.
Sun May 16 02:08:05 2021 55.0 F. 51.1 F.
Sun May 16 03:08:04 2021 56.0 F. 50.0 F.
Sun May 16 04:08:05 2021 56.0 F. 52.0 F.
Sun May 16 05:08:04 2021 56.0 F. 52.0 F.
Sun May 16 06:08:04 2021 56.0 F. 53.1 F.
Sun May 16 07:08:04 2021 56.0 F. 53.1 F.
Sun May 16 08:08:07 2021 57.0 F. 53.1 F.
Sun May 16 09:08:05 2021 58.0 F. 53.1 F.
Sun May 16 10:08:04 2021 64.0 F. 55.9 F.
Sun May 16 11:08:05 2021 70.0 F. 57.9 F.
Sun May 16 12:08:05 2021 70.0 F. 57.9 F.
Sun May 16 13:08:05 2021 78.0 F. 61.0 F.
Sun May 16 14:08:04 2021 78.0 F. 61.0 F.
Sun May 16 15:08:04 2021 77.0 F. 61.0 F.
Sun May 16 16:08:05 2021 77.0 F. 61.0 F.
Sun May 16 17:08:04 2021 78.0 F. 62.1 F.
Sun May 16 18:08:04 2021 79.0 F. 61.0 F.
Sun May 16 19:08:04 2021 79.0 F. 61.0 F.
Sun May 16 20:08:05 2021 75.0 F. 60.1 F.
Sun May 16 21:08:05 2021 72.0 F. 63.0 F.
Sun May 16 22:08:05 2021 70.0 F. 62.1 F.
Sun May 16 23:08:05 2021 67.0 F. 62.1 F.
Mon May 17 00:08:04 2021 66.0 F. 60.1 F.
Mon May 17 01:08:05 2021 66.0 F. 60.1 F.
Mon May 17 02:08:05 2021 65.0 F. 60.1 F.
Mon May 17 03:08:05 2021 65.0 F. 60.1 F.
Mon May 17 04:08:04 2021 64.0 F. 59.0 F.
Mon May 17 05:08:04 2021 63.0 F. 59.0 F.
Mon May 17 06:08:04 2021 63.0 F. 57.9 F.
Mon May 17 07:08:05 2021 65.0 F. 57.0 F.
Mon May 17 08:08:04 2021 65.0 F. 57.0 F.
Mon May 17 09:08:05 2021 69.0 F. 57.0 F.
Mon May 17 10:08:05 2021 69.0 F. 57.0 F.
Mon May 17 11:08:05 2021 66.0 F. 60.1 F.
Mon May 17 12:08:05 2021 69.0 F. 62.1 F.
Mon May 17 13:08:05 2021 70.0 F. 62.1 F.
Mon May 17 14:08:05 2021 72.0 F. 62.1 F.
Mon May 17 15:08:05 2021 72.0 F. 62.1 F.
Mon May 17 16:08:05 2021 68.0 F. 64.0 F.
Mon May 17 17:08:04 2021 68.0 F. 64.0 F.
Mon May 17 18:08:05 2021 70.0 F. 64.0 F.
Mon May 17 19:08:05 2021 69.0 F. 61.0 F.
Mon May 17 20:08:05 2021 65.0 F. 61.0 F.
Mon May 17 21:08:04 2021 65.0 F. 61.0 F.
Mon May 17 22:08:05 2021 65.0 F. 60.1 F.
Mon May 17 23:08:04 2021 63.0 F. 61.0 F.
Tue May 18 00:08:05 2021 64.0 F. 62.1 F.
Tue May 18 01:08:04 2021 64.0 F. 62.1 F.
Tue May 18 02:08:05 2021 63.0 F. 62.1 F.
Tue May 18 03:08:05 2021 64.0 F. 61.0 F.
Tue May 18 04:08:04 2021 63.0 F. 61.0 F.
Tue May 18 05:08:05 2021 63.0 F. 61.0 F.
Tue May 18 06:08:05 2021 63.0 F. 61.0 F.
Tue May 18 07:08:05 2021 63.0 F. 61.0 F.
Tue May 18 08:08:05 2021 63.0 F. 62.1 F.
Tue May 18 09:08:05 2021 63.0 F. 62.1 F.
Tue May 18 10:08:05 2021 64.0 F. 63.0 F.
Tue May 18 11:08:05 2021 64.0 F. 62.1 F.
Tue May 18 12:08:05 2021 65.0 F. 62.1 F.
Tue May 18 13:08:05 2021 66.0 F. 61.0 F.
Tue May 18 14:08:05 2021 68.0 F. 61.0 F.
Tue May 18 15:08:07 2021 71.0 F. 61.0 F.
Tue May 18 16:08:04 2021 71.0 F. 61.0 F.
Tue May 18 17:08:04 2021 72.0 F. 62.1 F.
Tue May 18 18:08:04 2021 71.0 F. 63.0 F.
Tue May 18 19:08:05 2021 71.0 F. 62.1 F.
Tue May 18 20:08:04 2021 70.0 F. 63.0 F.
Tue May 18 21:08:04 2021 70.0 F. 63.0 F.
Tue May 18 22:08:04 2021 70.0 F. 62.1 F.
Tue May 18 23:08:05 2021 67.0 F. 64.0 F.
Wed May 19 00:08:05 2021 67.0 F. 63.0 F.
Wed May 19 01:08:05 2021 67.0 F. 63.0 F.
Wed May 19 02:08:05 2021 65.0 F. 62.1 F.
Wed May 19 03:08:04 2021 66.0 F. 61.0 F.
Wed May 19 04:08:05 2021 66.0 F. 61.0 F.
Wed May 19 05:08:05 2021 68.0 F. 61.0 F.
Wed May 19 06:08:05 2021 67.0 F. 62.1 F.
Wed May 19 07:08:05 2021 68.0 F. 62.1 F.
Wed May 19 08:08:04 2021 68.0 F. 62.1 F.
Wed May 19 09:08:05 2021 68.0 F. 63.0 F.
Wed May 19 10:08:05 2021 70.0 F. 63.0 F.
Wed May 19 11:08:05 2021 73.0 F. 63.0 F.
Wed May 19 12:08:05 2021 73.0 F. 64.0 F.
Wed May 19 13:08:05 2021 75.0 F. 62.1 F.
Wed May 19 14:08:05 2021 78.0 F. 62.1 F.
Wed May 19 15:08:05 2021 80.0 F. 62.1 F.
Wed May 19 16:08:04 2021 80.0 F. 62.1 F.
Wed May 19 17:08:05 2021 78.0 F. 62.1 F.
Wed May 19 18:08:04 2021 78.0 F. 61.0 F.
Wed May 19 19:08:04 2021 76.0 F. 63.0 F.
Wed May 19 20:08:04 2021 75.0 F. 63.0 F.
Wed May 19 21:08:05 2021 73.0 F. 63.0 F.
Wed May 19 22:08:04 2021 71.0 F. 62.1 F.
Wed May 19 23:08:04 2021 70.0 F. 62.1 F.
Thu May 20 00:08:04 2021 70.0 F. 62.1 F.
Thu May 20 01:08:04 2021 70.0 F. 60.1 F.
Thu May 20 02:08:05 2021 70.0 F. 57.9 F.
Thu May 20 03:08:05 2021 69.0 F. 57.9 F.
Thu May 20 04:08:04 2021 69.0 F. 57.0 F.
Thu May 20 05:08:05 2021 68.0 F. 57.0 F.
Thu May 20 06:08:05 2021 67.0 F. 57.9 F.
Thu May 20 07:08:05 2021 69.0 F. 59.0 F.
Thu May 20 08:08:04 2021 72.0 F. 60.1 F.
Thu May 20 09:08:04 2021 72.0 F. 60.1 F.
Thu May 20 10:08:04 2021 75.0 F. 61.0 F.
Thu May 20 11:08:05 2021 77.0 F. 63.0 F.
Thu May 20 12:08:05 2021 81.0 F. 64.0 F.
Thu May 20 13:08:05 2021 83.0 F. 64.0 F.
Thu May 20 14:08:04 2021 83.0 F. 63.0 F.
Thu May 20 15:08:04 2021 83.0 F. 63.0 F.
Thu May 20 16:08:04 2021 84.0 F. 62.1 F.
Thu May 20 17:08:04 2021 84.0 F. 61.0 F.
Thu May 20 18:08:04 2021 84.0 F. 61.0 F.
Thu May 20 19:08:05 2021 81.0 F. 57.9 F.
Thu May 20 20:08:04 2021 81.0 F. 57.9 F.
Thu May 20 21:08:04 2021 74.0 F. 57.9 F.
Thu May 20 22:08:04 2021 74.0 F. 57.9 F.
Thu May 20 23:08:05 2021 72.0 F. 57.0 F.
Fri May 21 00:08:05 2021 69.0 F. 57.0 F.
Fri May 21 01:08:04 2021 68.0 F. 57.0 F.
Fri May 21 02:08:04 2021 67.0 F. 57.9 F.
Fri May 21 03:08:04 2021 68.0 F. 57.0 F.
Fri May 21 04:08:05 2021 68.0 F. 57.0 F.
Fri May 21 05:08:05 2021 67.0 F. 57.0 F.
Fri May 21 06:08:04 2021 66.0 F. 57.0 F.
Fri May 21 07:08:05 2021 66.0 F. 57.0 F.
Fri May 21 08:08:05 2021 68.0 F. 57.0 F.
Fri May 21 09:08:05 2021 70.0 F. 57.9 F.
Fri May 21 10:08:05 2021 76.0 F. 59.0 F.
Fri May 21 11:08:05 2021 79.0 F. 60.1 F.
Fri May 21 12:08:05 2021 79.0 F. 60.1 F.
Fri May 21 13:08:04 2021 82.0 F. 59.0 F.
Fri May 21 14:08:05 2021 82.0 F. 59.0 F.
Fri May 21 15:08:04 2021 82.0 F. 57.9 F.
Fri May 21 16:08:04 2021 83.0 F. 57.9 F.
Fri May 21 17:08:04 2021 84.0 F. 57.9 F.
Fri May 21 18:08:05 2021 82.0 F. 57.9 F.
Fri May 21 19:08:04 2021 79.0 F. 60.1 F.
Fri May 21 20:08:05 2021 76.0 F. 60.1 F.
Fri May 21 21:08:05 2021 76.0 F. 60.1 F.
Fri May 21 22:08:05 2021 71.0 F. 57.9 F.
Fri May 21 23:08:04 2021 71.0 F. 57.9 F.
Sat May 22 00:08:05 2021 68.0 F. 57.9 F.
Sat May 22 01:08:05 2021 68.0 F. 57.9 F.
Sat May 22 02:08:04 2021 65.0 F. 59.0 F.
Sat May 22 03:08:05 2021 62.0 F. 59.0 F.
Sat May 22 04:08:04 2021 62.0 F. 59.0 F.
Sat May 22 05:08:05 2021 62.0 F. 59.0 F.
Sat May 22 06:08:04 2021 61.0 F. 59.0 F.
Sat May 22 07:08:05 2021 65.0 F. 60.1 F.
Sat May 22 08:08:04 2021 65.0 F. 60.1 F.
Sat May 22 09:08:05 2021 75.0 F. 61.0 F.
Sat May 22 10:08:05 2021 79.0 F. 60.1 F.
Sat May 22 11:08:05 2021 82.0 F. 60.1 F.
Sat May 22 12:08:04 2021 82.0 F. 60.1 F.
Sat May 22 13:08:04 2021 84.0 F. 59.0 F.
Sat May 22 14:08:04 2021 85.0 F. 57.0 F.
Sat May 22 15:08:04 2021 86.0 F. 57.0 F.
Sat May 22 16:08:05 2021 84.0 F. 57.9 F.
Sat May 22 17:08:04 2021 83.0 F. 59.0 F.
Sat May 22 18:08:05 2021 83.0 F. 59.0 F.
Sat May 22 19:08:04 2021 81.0 F. 63.0 F.
Sat May 22 20:08:05 2021 81.0 F. 63.0 F.
Sat May 22 21:08:04 2021 77.0 F. 64.9 F.
Sat May 22 22:08:05 2021 74.0 F. 64.9 F.
Sat May 22 23:08:04 2021 69.0 F. 64.9 F.
Sun May 23 00:08:05 2021 67.0 F. 64.0 F.
Sun May 23 01:08:05 2021 66.0 F. 63.0 F.
Sun May 23 02:08:05 2021 64.0 F. 62.1 F.
Sun May 23 03:08:05 2021 64.0 F. 62.1 F.
Sun May 23 04:08:04 2021 64.0 F. 62.1 F.
Sun May 23 05:08:04 2021 63.0 F. 62.1 F.
Sun May 23 06:08:04 2021 62.0 F. 61.0 F.
Sun May 23 07:08:05 2021 65.0 F. 61.0 F.
Sun May 23 08:08:05 2021 71.0 F. 62.1 F.
Sun May 23 09:08:05 2021 77.0 F. 62.1 F.
Sun May 23 10:08:04 2021 81.0 F. 62.1 F.
Sun May 23 11:08:04 2021 82.0 F. 60.1 F.
Sun May 23 12:08:04 2021 84.0 F. 61.0 F.
Sun May 23 13:08:04 2021 84.0 F. 61.0 F.
Sun May 23 14:08:04 2021 86.0 F. 57.9 F.
Sun May 23 15:08:05 2021 86.0 F. 57.9 F.
Sun May 23 16:08:05 2021 88.0 F. 59.0 F.
Sun May 23 17:08:04 2021 86.0 F. 57.9 F.
Sun May 23 18:08:04 2021 86.0 F. 57.9 F.
Sun May 23 19:08:04 2021 86.0 F. 57.9 F.
Sun May 23 20:08:04 2021 81.0 F. 60.1 F.
Sun May 23 21:08:05 2021 77.0 F. 63.0 F.
Sun May 23 22:08:05 2021 72.0 F. 64.0 F.
Sun May 23 23:08:05 2021 72.0 F. 64.0 F.
Mon May 24 00:08:05 2021 70.0 F. 64.0 F.
Mon May 24 01:08:05 2021 67.0 F. 63.0 F.
Mon May 24 02:08:05 2021 67.0 F. 64.0 F.
Mon May 24 03:08:05 2021 66.0 F. 62.1 F.
Mon May 24 04:08:04 2021 66.0 F. 62.1 F.
Mon May 24 05:08:04 2021 64.0 F. 62.1 F.
Mon May 24 06:08:04 2021 63.0 F. 62.1 F.
Mon May 24 07:08:05 2021 65.0 F. 62.1 F.
Mon May 24 08:08:05 2021 65.0 F. 62.1 F.
Mon May 24 09:08:05 2021 71.0 F. 64.0 F.
Mon May 24 10:08:05 2021 77.0 F. 64.0 F.
Mon May 24 11:08:04 2021 82.0 F. 63.0 F.
Mon May 24 12:08:05 2021 85.0 F. 57.0 F.
Mon May 24 13:08:04 2021 84.0 F. 59.0 F.
Mon May 24 14:08:05 2021 86.0 F. 60.1 F.
Mon May 24 15:08:04 2021 87.0 F. 60.1 F.
Mon May 24 16:08:05 2021 87.0 F. 60.1 F.
Mon May 24 17:08:05 2021 87.0 F. 60.1 F.
Mon May 24 18:08:04 2021 87.0 F. 59.0 F.
Mon May 24 19:08:05 2021 84.0 F. 60.1 F.
Mon May 24 20:08:04 2021 83.0 F. 61.0 F.
Mon May 24 21:08:05 2021 78.0 F. 64.0 F.
Mon May 24 22:08:05 2021 75.0 F. 64.9 F.
Mon May 24 23:08:04 2021 72.0 F. 64.9 F.
Tue May 25 00:08:05 2021 70.0 F. 66.0 F.
Tue May 25 01:08:04 2021 69.0 F. 66.0 F.
Tue May 25 02:08:05 2021 69.0 F. 66.0 F.
Tue May 25 03:08:04 2021 67.0 F. 64.9 F.
Tue May 25 04:08:04 2021 67.0 F. 64.0 F.
Tue May 25 05:08:05 2021 67.0 F. 64.0 F.
Tue May 25 06:08:04 2021 65.0 F. 63.0 F.
Tue May 25 07:08:04 2021 67.0 F. 64.0 F.
Tue May 25 08:08:05 2021 67.0 F. 64.0 F.
Tue May 25 09:08:04 2021 72.0 F. 64.9 F.
Tue May 25 10:08:04 2021 76.0 F. 64.9 F.
Tue May 25 11:08:04 2021 81.0 F. 62.1 F.
Tue May 25 12:08:05 2021 81.0 F. 62.1 F.
Tue May 25 13:08:04 2021 85.0 F. 63.0 F.
Tue May 25 14:08:05 2021 85.0 F. 63.0 F.
Tue May 25 15:08:05 2021 85.0 F. 63.0 F.
Tue May 25 16:08:04 2021 88.0 F. 63.0 F.
Tue May 25 17:08:05 2021 88.0 F. 61.0 F.
Tue May 25 18:08:05 2021 84.0 F. 64.0 F.
Tue May 25 19:08:05 2021 84.0 F. 64.0 F.
Tue May 25 20:08:05 2021 83.0 F. 61.0 F.
Tue May 25 21:08:05 2021 78.0 F. 64.0 F.
Tue May 25 22:08:05 2021 79.0 F. 62.1 F.
Tue May 25 23:08:04 2021 74.0 F. 61.0 F.
Wed May 26 00:08:05 2021 74.0 F. 59.0 F.
Wed May 26 01:08:08 2021 76.0 F. 59.0 F.
Wed May 26 02:08:05 2021 75.0 F. 60.1 F.
Wed May 26 03:08:05 2021 74.0 F. 62.1 F.
Wed May 26 04:08:04 2021 74.0 F. 62.1 F.
Wed May 26 05:08:05 2021 70.0 F. 64.0 F.
Wed May 26 06:08:05 2021 69.0 F. 66.9 F.
Wed May 26 07:08:05 2021 69.0 F. 66.9 F.
Wed May 26 08:08:04 2021 70.0 F. 68.0 F.
Wed May 26 09:08:05 2021 71.0 F. 68.0 F.
Wed May 26 10:08:05 2021 71.0 F. 68.0 F.
Wed May 26 11:08:05 2021 73.0 F. 69.1 F.
Wed May 26 12:08:04 2021 74.0 F. 69.1 F.
Wed May 26 13:08:04 2021 77.0 F. 70.0 F.
Wed May 26 14:08:05 2021 77.0 F. 70.0 F.
Wed May 26 15:08:05 2021 81.0 F. 68.0 F.
Wed May 26 16:08:05 2021 82.0 F. 68.0 F.
Wed May 26 17:08:05 2021 82.0 F. 68.0 F.
Wed May 26 18:08:04 2021 80.0 F. 68.0 F.
Wed May 26 19:08:05 2021 78.0 F. 69.1 F.
Wed May 26 20:08:04 2021 78.0 F. 69.1 F.
Wed May 26 21:08:05 2021 74.0 F. 66.9 F.
Wed May 26 22:08:05 2021 72.0 F. 68.0 F.
Wed May 26 23:08:05 2021 69.0 F. 66.9 F.
Thu May 27 00:08:04 2021 69.0 F. 66.9 F.
Thu May 27 01:08:04 2021 67.0 F. 66.0 F.
Thu May 27 02:08:04 2021 66.0 F. 64.9 F.
Thu May 27 03:08:05 2021 65.0 F. 64.0 F.
Thu May 27 04:08:04 2021 65.0 F. 64.0 F.
Thu May 27 05:08:05 2021 65.0 F. 64.0 F.
Thu May 27 06:08:04 2021 64.0 F. 63.0 F.
Thu May 27 07:08:04 2021 64.0 F. 62.1 F.
Thu May 27 08:08:05 2021 65.0 F. 64.0 F.
Thu May 27 09:08:05 2021 69.0 F. 66.9 F.
Thu May 27 10:08:04 2021 75.0 F. 68.0 F.
Thu May 27 11:08:05 2021 75.0 F. 68.0 F.
Thu May 27 12:08:05 2021 78.0 F. 66.9 F.
Thu May 27 13:08:05 2021 82.0 F. 68.0 F.
Thu May 27 14:08:05 2021 82.0 F. 68.0 F.
Thu May 27 15:08:06 2021 84.0 F. 68.0 F.
Thu May 27 16:08:04 2021 85.0 F. 66.9 F.
Thu May 27 17:08:04 2021 84.0 F. 66.9 F.
Thu May 27 18:08:05 2021 82.0 F. 64.9 F.
Thu May 27 19:08:05 2021 67.0 F. 66.9 F.
Thu May 27 20:08:05 2021 68.0 F. 66.9 F.
Thu May 27 21:08:04 2021 68.0 F. 66.9 F.
Thu May 27 22:08:05 2021 67.0 F. 66.9 F.
Thu May 27 23:08:05 2021 67.0 F. 66.0 F.
Fri May 28 00:08:05 2021 67.0 F. 64.9 F.
Fri May 28 01:08:04 2021 67.0 F. 64.9 F.
Fri May 28 02:08:05 2021 67.0 F. 64.9 F.
Fri May 28 03:08:05 2021 67.0 F. 64.9 F.
Fri May 28 04:08:05 2021 66.0 F. 64.9 F.
Fri May 28 05:08:05 2021 66.0 F. 64.9 F.
Fri May 28 06:08:05 2021 66.0 F. 64.0 F.
Fri May 28 07:08:05 2021 66.0 F. 64.0 F.
Fri May 28 08:08:04 2021 66.0 F. 64.0 F.
Fri May 28 09:08:04 2021 67.0 F. 64.9 F.
Fri May 28 10:08:04 2021 67.0 F. 64.9 F.
Fri May 28 11:08:05 2021 69.0 F. 64.9 F.
Fri May 28 12:08:05 2021 69.0 F. 64.9 F.
Fri May 28 13:08:05 2021 62.0 F. 57.9 F.
Fri May 28 14:08:05 2021 62.0 F. 57.9 F.
Fri May 28 15:08:05 2021 60.0 F. 55.9 F.
Fri May 28 16:08:05 2021 59.0 F. 55.0 F.
Fri May 28 17:08:04 2021 58.0 F. 53.1 F.
Fri May 28 18:08:05 2021 58.0 F. 53.1 F.
Fri May 28 19:08:04 2021 57.0 F. 51.1 F.
Fri May 28 20:08:06 2021 55.0 F. 51.1 F.
Fri May 28 21:08:05 2021 53.0 F. 46.9 F.
Fri May 28 22:08:05 2021 52.0 F. 46.9 F.
Fri May 28 23:08:06 2021 52.0 F. 46.9 F.
Sat May 29 00:08:05 2021 52.0 F. 46.0 F.
Sat May 29 01:08:05 2021 52.0 F. 46.0 F.
Sat May 29 02:08:04 2021 52.0 F. 46.0 F.
Sat May 29 03:08:04 2021 51.0 F. 46.0 F.
Sat May 29 04:08:05 2021 51.0 F. 46.9 F.
Sat May 29 05:08:05 2021 51.0 F. 46.9 F.
Sat May 29 06:08:05 2021 51.0 F. 46.9 F.
Sat May 29 07:08:05 2021 51.0 F. 46.9 F.
Sat May 29 08:08:05 2021 51.0 F. 46.9 F.
Sat May 29 09:08:05 2021 52.0 F. 46.9 F.
Sat May 29 10:08:04 2021 52.0 F. 46.9 F.
Sat May 29 11:08:04 2021 52.0 F. 46.0 F.
Sat May 29 12:08:04 2021 53.0 F. 46.9 F.
Sat May 29 13:08:05 2021 53.0 F. 46.9 F.
Sat May 29 14:08:05 2021 55.0 F. 46.9 F.
Sat May 29 15:08:04 2021 56.0 F. 48.0 F.
Sat May 29 16:08:05 2021 59.0 F. 48.0 F.
Sat May 29 17:08:05 2021 59.0 F. 48.0 F.
Sat May 29 18:08:05 2021 61.0 F. 48.0 F.
Sat May 29 19:08:05 2021 60.0 F. 46.9 F.
Sat May 29 20:08:04 2021 60.0 F. 46.9 F.
Sat May 29 21:08:04 2021 58.0 F. 52.0 F.
Sat May 29 22:08:05 2021 58.0 F. 52.0 F.
Sat May 29 23:08:05 2021 55.0 F. 52.0 F.
Sun May 30 00:08:04 2021 53.0 F. 50.0 F.
Sun May 30 01:08:05 2021 51.0 F. 50.0 F.
Sun May 30 02:08:05 2021 50.0 F. 48.9 F.
Sun May 30 03:08:05 2021 47.0 F. 46.0 F.
Sun May 30 04:08:05 2021 47.0 F. 46.0 F.
Sun May 30 05:08:05 2021 47.0 F. 46.0 F.
Sun May 30 06:08:05 2021 46.0 F. 45.0 F.
Sun May 30 07:08:05 2021 45.0 F. 44.1 F.
Sun May 30 08:08:04 2021 54.0 F. 48.9 F.
Sun May 30 09:08:04 2021 54.0 F. 48.9 F.
Sun May 30 10:08:04 2021 61.0 F. 43.0 F.
Sun May 30 11:08:05 2021 65.0 F. 41.0 F.
Sun May 30 12:08:04 2021 65.0 F. 42.1 F.
Sun May 30 13:08:05 2021 67.0 F. 39.9 F.
Sun May 30 14:08:05 2021 67.0 F. 39.9 F.
Sun May 30 15:08:10 2021 69.0 F. 44.1 F.
Sun May 30 16:08:04 2021 71.0 F. 42.1 F.
Sun May 30 17:08:05 2021 70.0 F. 43.0 F.
Sun May 30 18:08:05 2021 69.0 F. 43.0 F.
Sun May 30 19:08:05 2021 69.0 F. 43.0 F.
Sun May 30 20:08:05 2021 69.0 F. 44.1 F.
Sun May 30 21:08:05 2021 65.0 F. 50.0 F.
Sun May 30 22:08:05 2021 56.0 F. 51.1 F.
Sun May 30 23:08:05 2021 55.0 F. 51.1 F.
Mon May 31 00:08:05 2021 55.0 F. 51.1 F.
Mon May 31 01:08:05 2021 53.0 F. 51.1 F.
Mon May 31 02:08:05 2021 52.0 F. 50.0 F.
Mon May 31 03:08:05 2021 50.0 F. 48.0 F.
Mon May 31 04:08:05 2021 49.0 F. 48.0 F.
Mon May 31 05:08:05 2021 49.0 F. 46.9 F.
Mon May 31 06:08:05 2021 49.0 F. 46.9 F.
Mon May 31 07:08:04 2021 49.0 F. 46.9 F.
Mon May 31 08:08:05 2021 52.0 F. 50.0 F.
Mon May 31 09:08:10 2021 52.0 F. 50.0 F.
Mon May 31 10:08:05 2021 68.0 F. 51.1 F.
Mon May 31 11:08:05 2021 68.0 F. 51.1 F.
Mon May 31 12:08:05 2021 70.0 F. 48.0 F.
Mon May 31 13:08:04 2021 71.0 F. 50.0 F.
Mon May 31 14:08:05 2021 73.0 F. 51.1 F.
Mon May 31 15:08:05 2021 75.0 F. 51.1 F.
Mon May 31 16:08:05 2021 75.0 F. 51.1 F.
Mon May 31 17:08:04 2021 76.0 F. 52.0 F.
Mon May 31 18:08:04 2021 74.0 F. 51.1 F.
Mon May 31 19:08:04 2021 75.0 F. 51.1 F.
Mon May 31 20:08:05 2021 74.0 F. 48.9 F.
Mon May 31 21:08:05 2021 70.0 F. 57.0 F.
Mon May 31 22:08:05 2021 64.0 F. 57.0 F.
Mon May 31 23:08:04 2021 62.0 F. 55.9 F.
Tue Jun 1 00:08:04 2021 62.0 F. 55.9 F.
Tue Jun 1 01:08:05 2021 62.0 F. 57.9 F.
Tue Jun 1 02:08:04 2021 62.0 F. 57.9 F.
Tue Jun 1 03:08:05 2021 61.0 F. 57.9 F.
Tue Jun 1 04:08:04 2021 60.0 F. 57.9 F.
Tue Jun 1 05:08:05 2021 61.0 F. 57.9 F.
Tue Jun 1 06:08:05 2021 60.0 F. 57.9 F.
Tue Jun 1 07:08:05 2021 61.0 F. 57.9 F.
Tue Jun 1 08:08:05 2021 61.0 F. 57.9 F.
Tue Jun 1 09:08:05 2021 62.0 F. 57.9 F.
Tue Jun 1 10:08:05 2021 65.0 F. 57.9 F.
Tue Jun 1 11:08:04 2021 70.0 F. 55.9 F.
Tue Jun 1 12:08:05 2021 69.0 F. 57.0 F.
Tue Jun 1 13:08:05 2021 68.0 F. 57.9 F.
Tue Jun 1 14:08:04 2021 65.0 F. 59.0 F.
Tue Jun 1 15:08:05 2021 65.0 F. 59.0 F.
Tue Jun 1 16:08:05 2021 64.0 F. 61.0 F.
Tue Jun 1 17:08:05 2021 63.0 F. 61.0 F.
Tue Jun 1 18:08:04 2021 62.0 F. 61.0 F.
Tue Jun 1 19:08:04 2021 62.0 F. 61.0 F.
Tue Jun 1 20:08:05 2021 62.0 F. 61.0 F.
Tue Jun 1 21:08:05 2021 62.0 F. 62.1 F.
Tue Jun 1 22:08:05 2021 62.0 F. 62.1 F.
Tue Jun 1 23:08:04 2021 62.0 F. 62.1 F.
Wed Jun 2 00:08:05 2021 62.0 F. 61.0 F.
Wed Jun 2 01:08:05 2021 63.0 F. 61.0 F.
Wed Jun 2 02:08:04 2021 63.0 F. 62.1 F.
Wed Jun 2 03:08:04 2021 63.0 F. 62.1 F.
Wed Jun 2 04:08:05 2021 62.0 F. 62.1 F.
Wed Jun 2 05:08:05 2021 62.0 F. 62.1 F.
Wed Jun 2 06:08:05 2021 62.0 F. 62.1 F.
Wed Jun 2 07:08:05 2021 63.0 F. 63.0 F.
Wed Jun 2 08:08:05 2021 63.0 F. 63.0 F.
Wed Jun 2 09:08:05 2021 64.0 F. 64.0 F.
Wed Jun 2 10:10:05 2021 64.0 F. 63.0 F.
Wed Jun 2 11:08:05 2021 65.0 F. 63.0 F.
Wed Jun 2 12:08:05 2021 65.0 F. 63.0 F.
Wed Jun 2 13:08:05 2021 65.0 F. 64.0 F.
Wed Jun 2 14:08:05 2021 66.0 F. 63.0 F.
Wed Jun 2 15:08:05 2021 66.0 F. 63.0 F.
Wed Jun 2 16:08:05 2021 69.0 F. 63.0 F.
Wed Jun 2 17:08:05 2021 69.0 F. 63.0 F.
Wed Jun 2 18:08:04 2021 70.0 F. 63.0 F.
Wed Jun 2 19:08:04 2021 70.0 F. 63.0 F.
Wed Jun 2 20:08:05 2021 70.0 F. 63.0 F.
Wed Jun 2 21:08:04 2021 68.0 F. 64.0 F.
Wed Jun 2 22:08:05 2021 67.0 F. 64.9 F.
Wed Jun 2 23:08:04 2021 67.0 F. 64.9 F.
Thu Jun 3 00:08:05 2021 67.0 F. 64.0 F.
Thu Jun 3 01:08:05 2021 66.0 F. 64.0 F.
Thu Jun 3 02:08:05 2021 66.0 F. 64.0 F.
Thu Jun 3 03:08:05 2021 65.0 F. 64.0 F.
Thu Jun 3 04:08:04 2021 65.0 F. 64.0 F.
Thu Jun 3 05:08:05 2021 65.0 F. 64.0 F.
Thu Jun 3 06:08:05 2021 64.0 F. 64.0 F.
Thu Jun 3 07:08:05 2021 64.0 F. 64.0 F.
Thu Jun 3 08:08:04 2021 63.0 F. 63.0 F.
Thu Jun 3 09:08:04 2021 65.0 F. 64.0 F.
Thu Jun 3 10:08:05 2021 65.0 F. 64.0 F.
Thu Jun 3 11:08:04 2021 66.0 F. 64.0 F.
Thu Jun 3 12:08:05 2021 70.0 F. 64.0 F.
Thu Jun 3 13:08:05 2021 75.0 F. 64.0 F.
Thu Jun 3 14:08:04 2021 74.0 F. 62.1 F.
Thu Jun 3 15:08:05 2021 77.0 F. 63.0 F.
Thu Jun 3 16:08:04 2021 77.0 F. 63.0 F.
Thu Jun 3 17:08:04 2021 78.0 F. 59.0 F.
Thu Jun 3 18:08:05 2021 79.0 F. 55.0 F.
Thu Jun 3 19:08:05 2021 79.0 F. 55.0 F.
Thu Jun 3 20:08:05 2021 78.0 F. 53.1 F.
Thu Jun 3 21:08:05 2021 73.0 F. 60.1 F.
Thu Jun 3 22:08:05 2021 69.0 F. 63.0 F.
Thu Jun 3 23:08:04 2021 66.0 F. 63.0 F.
Fri Jun 4 00:08:05 2021 63.0 F. 61.0 F.
Fri Jun 4 01:08:04 2021 63.0 F. 61.0 F.
Fri Jun 4 02:08:05 2021 63.0 F. 61.0 F.
Fri Jun 4 03:08:05 2021 60.0 F. 59.0 F.
Fri Jun 4 04:08:05 2021 60.0 F. 59.0 F.
Fri Jun 4 05:08:04 2021 60.0 F. 59.0 F.
Fri Jun 4 06:08:04 2021 60.0 F. 59.0 F.
Fri Jun 4 07:08:05 2021 59.0 F. 57.9 F.
Fri Jun 4 08:08:04 2021 67.0 F. 63.0 F.
Fri Jun 4 09:08:04 2021 73.0 F. 64.0 F.
Fri Jun 4 10:08:05 2021 77.0 F. 63.0 F.
Fri Jun 4 11:08:05 2021 79.0 F. 62.1 F.
Fri Jun 4 12:08:05 2021 80.0 F. 60.1 F.
Fri Jun 4 13:08:04 2021 79.0 F. 59.0 F.
Fri Jun 4 14:08:04 2021 79.0 F. 59.0 F.
Fri Jun 4 15:08:04 2021 82.0 F. 59.0 F.
Fri Jun 4 16:08:05 2021 82.0 F. 60.1 F.
Fri Jun 4 17:08:05 2021 82.0 F. 61.0 F.
Fri Jun 4 18:08:04 2021 82.0 F. 61.0 F.
Fri Jun 4 19:08:04 2021 82.0 F. 59.0 F.
Fri Jun 4 20:08:05 2021 81.0 F. 62.1 F.
Fri Jun 4 21:08:04 2021 73.0 F. 63.0 F.
Fri Jun 4 22:08:04 2021 69.0 F. 64.0 F.
Fri Jun 4 23:08:04 2021 68.0 F. 64.0 F.
Sat Jun 5 00:08:04 2021 68.0 F. 64.0 F.
Sat Jun 5 01:08:05 2021 66.0 F. 63.0 F.
Sat Jun 5 02:08:05 2021 64.0 F. 62.1 F.
Sat Jun 5 03:08:05 2021 64.0 F. 62.1 F.
Sat Jun 5 04:08:05 2021 63.0 F. 61.0 F.
Sat Jun 5 05:08:05 2021 62.0 F. 60.1 F.
Sat Jun 5 06:08:05 2021 61.0 F. 59.0 F.
Sat Jun 5 07:08:05 2021 64.0 F. 61.0 F.
Sat Jun 5 08:08:05 2021 64.0 F. 61.0 F.
Sat Jun 5 09:08:05 2021 70.0 F. 64.0 F.
Sat Jun 5 10:08:05 2021 76.0 F. 64.0 F.
Sat Jun 5 11:08:05 2021 79.0 F. 64.0 F.
Sat Jun 5 12:08:05 2021 81.0 F. 61.0 F.
Sat Jun 5 13:08:05 2021 83.0 F. 62.1 F.
Sat Jun 5 14:08:04 2021 83.0 F. 62.1 F.
Sat Jun 5 15:08:04 2021 85.0 F. 61.0 F.
Sat Jun 5 16:08:05 2021 83.0 F. 61.0 F.
Sat Jun 5 17:08:05 2021 85.0 F. 62.1 F.
Sat Jun 5 18:08:05 2021 85.0 F. 63.0 F.
Sat Jun 5 19:08:04 2021 83.0 F. 64.0 F.
Sat Jun 5 20:08:04 2021 82.0 F. 63.0 F.
Sat Jun 5 21:08:05 2021 79.0 F. 69.1 F.
Sat Jun 5 22:08:04 2021 74.0 F. 68.0 F.
Sat Jun 5 23:08:04 2021 73.0 F. 68.0 F.
Sun Jun 6 00:08:04 2021 72.0 F. 66.0 F.
Sun Jun 6 01:08:05 2021 72.0 F. 66.0 F.
Sun Jun 6 02:08:04 2021 73.0 F. 68.0 F.
Sun Jun 6 03:08:05 2021 71.0 F. 69.1 F.
Sun Jun 6 04:08:04 2021 71.0 F. 69.1 F.
Sun Jun 6 05:08:05 2021 70.0 F. 68.0 F.
Sun Jun 6 06:08:05 2021 70.0 F. 68.0 F.
Sun Jun 6 07:08:05 2021 70.0 F. 68.0 F.
Sun Jun 6 08:08:05 2021 72.0 F. 68.0 F.
Sun Jun 6 09:08:05 2021 72.0 F. 68.0 F.
Sun Jun 6 10:08:04 2021 76.0 F. 69.1 F.
Sun Jun 6 11:08:05 2021 78.0 F. 70.0 F.
Sun Jun 6 12:08:05 2021 78.0 F. 70.0 F.
Sun Jun 6 13:08:05 2021 82.0 F. 69.1 F.
Sun Jun 6 14:08:04 2021 82.0 F. 69.1 F.
Sun Jun 6 15:08:04 2021 82.0 F. 68.0 F.
Sun Jun 6 16:08:04 2021 81.0 F. 69.1 F.
Sun Jun 6 17:08:05 2021 79.0 F. 70.0 F.
Sun Jun 6 18:08:05 2021 76.0 F. 70.0 F.
Sun Jun 6 19:08:05 2021 76.0 F. 70.0 F.
Sun Jun 6 20:08:05 2021 76.0 F. 69.1 F.
Sun Jun 6 21:08:05 2021 75.0 F. 69.1 F.
Sun Jun 6 22:08:05 2021 73.0 F. 69.1 F.
Sun Jun 6 23:08:04 2021 73.0 F. 69.1 F.
Mon Jun 7 00:08:04 2021 73.0 F. 69.1 F.
Mon Jun 7 01:08:04 2021 72.0 F. 68.0 F.
Mon Jun 7 02:08:05 2021 71.0 F. 68.0 F.
Mon Jun 7 03:08:04 2021 71.0 F. 68.0 F.
Mon Jun 7 04:08:05 2021 71.0 F. 68.0 F.
Mon Jun 7 05:08:04 2021 71.0 F. 68.0 F.
Mon Jun 7 06:08:04 2021 71.0 F. 68.0 F.
Mon Jun 7 07:08:04 2021 71.0 F. 68.0 F.
Mon Jun 7 08:08:05 2021 71.0 F. 68.0 F.
Mon Jun 7 09:08:04 2021 72.0 F. 68.0 F.
Mon Jun 7 10:08:04 2021 73.0 F. 68.0 F.
Mon Jun 7 11:08:05 2021 75.0 F. 68.0 F.
Mon Jun 7 12:08:05 2021 76.0 F. 68.0 F.
Mon Jun 7 13:08:05 2021 76.0 F. 68.0 F.
Mon Jun 7 14:08:04 2021 78.0 F. 68.0 F.
Mon Jun 7 15:08:05 2021 77.0 F. 68.0 F.
Mon Jun 7 16:08:04 2021 77.0 F. 68.0 F.
Mon Jun 7 17:08:05 2021 76.0 F. 69.1 F.
Mon Jun 7 18:08:04 2021 76.0 F. 69.1 F.
Mon Jun 7 19:08:06 2021 76.0 F. 69.1 F.
Mon Jun 7 20:08:05 2021 72.0 F. 68.0 F.
Mon Jun 7 21:08:05 2021 72.0 F. 69.1 F.
Mon Jun 7 22:08:04 2021 71.0 F. 69.1 F.
Mon Jun 7 23:08:04 2021 71.0 F. 69.1 F.
Tue Jun 8 00:08:05 2021 71.0 F. 69.1 F.
Tue Jun 8 01:08:04 2021 70.0 F. 69.1 F.
Tue Jun 8 02:08:04 2021 70.0 F. 69.1 F.
Tue Jun 8 03:08:04 2021 70.0 F. 68.0 F.
Tue Jun 8 04:08:05 2021 71.0 F. 68.0 F.
Tue Jun 8 05:08:05 2021 71.0 F. 68.0 F.
Tue Jun 8 06:08:05 2021 70.0 F. 68.0 F.
Tue Jun 8 07:08:04 2021 70.0 F. 68.0 F.
Tue Jun 8 08:08:05 2021 70.0 F. 68.0 F.
Tue Jun 8 09:08:06 2021 71.0 F. 68.0 F.
Tue Jun 8 10:08:05 2021 72.0 F. 68.0 F.
Tue Jun 8 11:08:04 2021 76.0 F. 68.0 F.
Tue Jun 8 12:08:05 2021 76.0 F. 68.0 F.
Tue Jun 8 13:08:04 2021 76.0 F. 69.1 F.
Tue Jun 8 14:08:05 2021 75.0 F. 69.1 F.
Tue Jun 8 15:08:05 2021 75.0 F. 71.1 F.
Tue Jun 8 16:08:05 2021 75.0 F. 70.0 F.
Tue Jun 8 17:08:24 2021 78.0 F. 71.1 F.
Tue Jun 8 18:08:05 2021 78.0 F. 71.1 F.
Tue Jun 8 19:08:04 2021 78.0 F. 71.1 F.
Tue Jun 8 20:08:05 2021 76.0 F. 71.1 F.
Tue Jun 8 21:08:05 2021 73.0 F. 71.1 F.
Tue Jun 8 22:08:05 2021 73.0 F. 71.1 F.
Tue Jun 8 23:08:05 2021 72.0 F. 71.1 F.
Wed Jun 9 00:08:05 2021 72.0 F. 70.0 F.
Wed Jun 9 01:08:05 2021 72.0 F. 70.0 F.
Wed Jun 9 02:08:05 2021 72.0 F. 70.0 F.
Wed Jun 9 03:08:05 2021 72.0 F. 70.0 F.
Wed Jun 9 04:08:04 2021 72.0 F. 70.0 F.
Wed Jun 9 05:08:05 2021 72.0 F. 70.0 F.
Wed Jun 9 06:08:05 2021 72.0 F. 70.0 F.
Wed Jun 9 07:08:05 2021 72.0 F. 70.0 F.
Wed Jun 9 08:08:06 2021 73.0 F. 70.0 F.
Wed Jun 9 09:08:04 2021 73.0 F. 70.0 F.
Wed Jun 9 10:08:05 2021 73.0 F. 70.0 F.
Wed Jun 9 11:08:04 2021 78.0 F. 72.0 F.
Wed Jun 9 12:08:04 2021 78.0 F. 72.0 F.
Wed Jun 9 13:08:04 2021 80.0 F. 71.1 F.
Wed Jun 9 14:08:04 2021 80.0 F. 71.1 F.
Wed Jun 9 15:08:05 2021 81.0 F. 73.0 F.
Wed Jun 9 16:08:05 2021 82.0 F. 71.1 F.
Wed Jun 9 17:08:05 2021 82.0 F. 71.1 F.
Wed Jun 9 18:08:04 2021 78.0 F. 71.1 F.
Wed Jun 9 19:08:05 2021 76.0 F. 71.1 F.
Wed Jun 9 20:08:04 2021 76.0 F. 72.0 F.
Wed Jun 9 21:08:05 2021 75.0 F. 73.0 F.
Wed Jun 9 22:08:04 2021 75.0 F. 73.0 F.
Wed Jun 9 23:08:05 2021 74.0 F. 73.0 F.
Thu Jun 10 00:08:04 2021 72.0 F. 71.1 F.
Thu Jun 10 01:08:05 2021 72.0 F. 71.1 F.
Thu Jun 10 02:08:05 2021 71.0 F. 70.0 F.
Thu Jun 10 03:08:04 2021 71.0 F. 70.0 F.
Thu Jun 10 04:08:05 2021 70.0 F. 69.1 F.
Thu Jun 10 05:08:04 2021 69.0 F. 69.1 F.
Thu Jun 10 06:08:05 2021 69.0 F. 68.0 F.
Thu Jun 10 07:08:05 2021 69.0 F. 68.0 F.
Thu Jun 10 08:08:05 2021 71.0 F. 70.0 F.
Thu Jun 10 09:08:05 2021 79.0 F. 73.0 F.
Thu Jun 10 10:08:05 2021 81.0 F. 72.0 F.
Thu Jun 10 11:08:04 2021 81.0 F. 72.0 F.
Thu Jun 10 12:08:05 2021 83.0 F. 71.1 F.
Thu Jun 10 13:08:05 2021 84.0 F. 71.1 F.
Thu Jun 10 14:08:04 2021 86.0 F. 71.1 F.
Thu Jun 10 15:08:05 2021 84.0 F. 73.0 F.
Thu Jun 10 16:08:04 2021 84.0 F. 73.0 F.
Thu Jun 10 17:08:04 2021 84.0 F. 73.0 F.
Thu Jun 10 18:08:04 2021 80.0 F. 71.1 F.
Thu Jun 10 19:08:04 2021 80.0 F. 71.1 F.
Thu Jun 10 20:08:05 2021 79.0 F. 72.0 F.
Thu Jun 10 21:08:12 2021 77.0 F. 73.9 F.
Thu Jun 10 22:08:05 2021 76.0 F. 73.9 F.
Thu Jun 10 23:08:04 2021 76.0 F. 73.9 F.
Fri Jun 11 00:08:05 2021 74.0 F. 73.0 F.
Fri Jun 11 01:08:08 2021 73.0 F. 72.0 F.
Fri Jun 11 02:08:04 2021 72.0 F. 71.1 F.
Fri Jun 11 03:08:05 2021 72.0 F. 71.1 F.
Fri Jun 11 04:08:05 2021 71.0 F. 70.0 F.
Fri Jun 11 05:08:05 2021 71.0 F. 70.0 F.
Fri Jun 11 06:08:04 2021 70.0 F. 69.1 F.
Fri Jun 11 07:08:05 2021 73.0 F. 71.1 F.
Fri Jun 11 08:08:04 2021 73.0 F. 71.1 F.
Fri Jun 11 09:08:04 2021 77.0 F. 73.0 F.
Fri Jun 11 10:08:05 2021 82.0 F. 73.9 F.
Fri Jun 11 11:08:05 2021 85.0 F. 73.9 F.
Fri Jun 11 12:08:04 2021 88.0 F. 73.0 F.
Fri Jun 11 13:08:05 2021 89.0 F. 70.0 F.
Fri Jun 11 14:08:04 2021 91.0 F. 69.1 F.
Fri Jun 11 15:08:05 2021 91.0 F. 69.1 F.
Fri Jun 11 16:08:05 2021 93.0 F. 71.1 F.
Fri Jun 11 17:08:05 2021 92.0 F. 69.1 F.
Fri Jun 11 18:08:05 2021 91.0 F. 70.0 F.
Fri Jun 11 19:08:05 2021 92.0 F. 70.0 F.
Fri Jun 11 20:08:06 2021 85.0 F. 75.9 F.
Fri Jun 11 21:08:05 2021 81.0 F. 75.0 F.
Fri Jun 11 22:08:05 2021 78.0 F. 73.0 F.
Fri Jun 11 23:08:04 2021 78.0 F. 73.9 F.
Sat Jun 12 00:08:04 2021 77.0 F. 73.9 F.
Sat Jun 12 01:08:05 2021 77.0 F. 73.9 F.
Sat Jun 12 02:08:05 2021 75.0 F. 73.0 F.
Sat Jun 12 03:08:06 2021 75.0 F. 73.0 F.
Sat Jun 12 04:08:05 2021 74.0 F. 72.0 F.
Sat Jun 12 05:08:04 2021 74.0 F. 72.0 F.
Sat Jun 12 06:08:05 2021 74.0 F. 72.0 F.
Sat Jun 12 07:08:05 2021 76.0 F. 73.9 F.
Sat Jun 12 08:08:05 2021 76.0 F. 73.9 F.
Sat Jun 12 09:08:04 2021 84.0 F. 75.0 F.
Sat Jun 12 10:08:05 2021 84.0 F. 75.0 F.
Sat Jun 12 11:08:04 2021 90.0 F. 75.0 F.
Sat Jun 12 12:08:05 2021 92.0 F. 73.9 F.
Sat Jun 12 13:08:04 2021 92.0 F. 73.9 F.
Sat Jun 12 14:08:04 2021 92.0 F. 73.0 F.
Sat Jun 12 15:08:05 2021 93.0 F. 71.1 F.
Sat Jun 12 16:08:04 2021 93.0 F. 71.1 F.
Sat Jun 12 17:08:05 2021 93.0 F. 71.1 F.
Sat Jun 12 18:08:05 2021 93.0 F. 71.1 F.
Sat Jun 12 19:08:08 2021 92.0 F. 71.1 F.
Sat Jun 12 20:08:04 2021 91.0 F. 73.0 F.
Sat Jun 12 21:08:04 2021 85.0 F. 73.0 F.
Sat Jun 12 22:08:04 2021 85.0 F. 73.0 F.
Sat Jun 12 23:08:05 2021 82.0 F. 75.0 F.
Sun Jun 13 00:08:05 2021 80.0 F. 75.9 F.
Sun Jun 13 01:08:06 2021 79.0 F. 73.9 F.
Sun Jun 13 02:08:05 2021 77.0 F. 73.9 F.
Sun Jun 13 03:08:05 2021 75.0 F. 73.0 F.
Sun Jun 13 04:08:05 2021 75.0 F. 72.0 F.
Sun Jun 13 05:08:05 2021 74.0 F. 70.0 F.
Sun Jun 13 06:08:04 2021 74.0 F. 69.1 F.
Sun Jun 13 07:08:04 2021 74.0 F. 69.1 F.
Sun Jun 13 08:08:05 2021 78.0 F. 70.0 F.
Sun Jun 13 09:08:05 2021 81.0 F. 71.1 F.
Sun Jun 13 10:08:05 2021 81.0 F. 71.1 F.
Sun Jun 13 11:08:04 2021 82.0 F. 70.0 F.
Sun Jun 13 12:08:05 2021 85.0 F. 71.1 F.
Sun Jun 13 13:08:04 2021 87.0 F. 71.1 F.
Sun Jun 13 14:08:05 2021 87.0 F. 71.1 F.
Sun Jun 13 15:08:05 2021 89.0 F. 70.0 F.
Sun Jun 13 16:08:07 2021 89.0 F. 70.0 F.
Sun Jun 13 17:08:05 2021 89.0 F. 69.1 F.
Sun Jun 13 18:08:04 2021 90.0 F. 68.0 F.
Sun Jun 13 19:08:05 2021 89.0 F. 66.0 F.
Sun Jun 13 20:08:04 2021 87.0 F. 63.0 F.
Sun Jun 13 21:08:05 2021 83.0 F. 63.0 F.
Sun Jun 13 22:08:05 2021 79.0 F. 62.1 F.
Sun Jun 13 23:08:04 2021 72.0 F. 64.9 F.
Mon Jun 14 00:08:04 2021 72.0 F. 64.9 F.
Mon Jun 14 01:08:04 2021 68.0 F. 64.9 F.
Mon Jun 14 02:08:05 2021 67.0 F. 63.0 F.
Mon Jun 14 03:08:04 2021 67.0 F. 63.0 F.
Mon Jun 14 04:08:05 2021 65.0 F. 63.0 F.
Mon Jun 14 05:08:05 2021 65.0 F. 63.0 F.
Mon Jun 14 06:08:05 2021 63.0 F. 61.0 F.
Mon Jun 14 07:08:04 2021 64.0 F. 61.0 F.
Mon Jun 14 08:08:04 2021 64.0 F. 61.0 F.
Mon Jun 14 09:08:04 2021 78.0 F. 64.0 F.
Mon Jun 14 10:08:05 2021 82.0 F. 60.1 F.
Mon Jun 14 11:08:04 2021 86.0 F. 61.0 F.
Mon Jun 14 12:08:05 2021 86.0 F. 61.0 F.
Mon Jun 14 13:08:04 2021 88.0 F. 62.1 F.
Mon Jun 14 14:08:05 2021 93.0 F. 62.1 F.
Mon Jun 14 15:08:05 2021 94.0 F. 62.1 F.
Mon Jun 14 16:08:05 2021 94.0 F. 62.1 F.
Mon Jun 14 17:08:04 2021 94.0 F. 60.1 F.
Mon Jun 14 18:08:05 2021 93.0 F. 63.0 F.
Mon Jun 14 19:08:04 2021 93.0 F. 63.0 F.
Mon Jun 14 20:08:04 2021 87.0 F. 66.0 F.
Mon Jun 14 21:08:06 2021 87.0 F. 66.0 F.
Mon Jun 14 22:08:05 2021 82.0 F. 64.9 F.
Mon Jun 14 23:08:05 2021 81.0 F. 57.0 F.
Tue Jun 15 00:08:04 2021 77.0 F. 55.0 F.
Tue Jun 15 01:08:05 2021 72.0 F. 57.9 F.
Tue Jun 15 02:08:04 2021 72.0 F. 57.9 F.
Tue Jun 15 03:08:05 2021 65.0 F. 59.0 F.
Tue Jun 15 04:08:05 2021 65.0 F. 59.0 F.
Tue Jun 15 05:08:05 2021 62.0 F. 59.0 F.
Tue Jun 15 06:08:04 2021 62.0 F. 60.1 F.
Tue Jun 15 07:08:04 2021 62.0 F. 60.1 F.
Tue Jun 15 08:08:04 2021 64.0 F. 62.1 F.
Tue Jun 15 09:08:04 2021 76.0 F. 55.9 F.
Tue Jun 15 10:08:04 2021 76.0 F. 55.9 F.
Tue Jun 15 11:08:04 2021 80.0 F. 53.1 F.
Tue Jun 15 12:08:05 2021 83.0 F. 54.0 F.
Tue Jun 15 13:08:04 2021 83.0 F. 54.0 F.
Tue Jun 15 14:08:05 2021 85.0 F. 55.0 F.
Tue Jun 15 15:08:05 2021 85.0 F. 55.0 F.
Tue Jun 15 16:08:04 2021 87.0 F. 55.0 F.
Tue Jun 15 17:08:04 2021 87.0 F. 55.0 F.
Tue Jun 15 18:08:04 2021 86.0 F. 54.0 F.
Tue Jun 15 19:08:04 2021 84.0 F. 54.0 F.
Tue Jun 15 20:08:05 2021 84.0 F. 54.0 F.
Tue Jun 15 21:08:05 2021 79.0 F. 62.1 F.
Tue Jun 15 22:08:04 2021 73.0 F. 64.9 F.
Tue Jun 15 23:08:05 2021 73.0 F. 64.9 F.
Wed Jun 16 00:08:05 2021 69.0 F. 62.1 F.
Wed Jun 16 01:08:04 2021 67.0 F. 63.0 F.
Wed Jun 16 02:08:05 2021 65.0 F. 63.0 F.
Wed Jun 16 03:08:04 2021 65.0 F. 63.0 F.
Wed Jun 16 04:08:05 2021 65.0 F. 63.0 F.
Wed Jun 16 05:08:05 2021 64.0 F. 61.0 F.
Wed Jun 16 06:08:05 2021 63.0 F. 61.0 F.
Wed Jun 16 07:08:05 2021 63.0 F. 61.0 F.
Wed Jun 16 08:08:05 2021 66.0 F. 63.0 F.
Wed Jun 16 09:08:05 2021 77.0 F. 61.0 F.
Wed Jun 16 10:08:05 2021 79.0 F. 60.1 F.
Wed Jun 16 11:08:05 2021 79.0 F. 60.1 F.
Wed Jun 16 12:08:05 2021 79.0 F. 60.1 F.
Wed Jun 16 13:08:04 2021 79.0 F. 60.1 F.
Wed Jun 16 14:08:05 2021 86.0 F. 61.0 F.
Wed Jun 16 15:08:05 2021 86.0 F. 61.0 F.
Wed Jun 16 16:08:04 2021 87.0 F. 60.1 F.
Wed Jun 16 17:08:04 2021 85.0 F. 62.1 F.
Wed Jun 16 18:08:05 2021 87.0 F. 62.1 F.
Wed Jun 16 19:08:04 2021 86.0 F. 62.1 F.
Wed Jun 16 20:08:05 2021 85.0 F. 62.1 F.
Wed Jun 16 21:08:04 2021 81.0 F. 66.9 F.
Wed Jun 16 22:08:04 2021 73.0 F. 64.0 F.
Wed Jun 16 23:08:04 2021 71.0 F. 63.0 F.
Thu Jun 17 00:08:05 2021 68.0 F. 64.0 F.
Thu Jun 17 01:08:05 2021 67.0 F. 64.0 F.
Thu Jun 17 02:08:05 2021 67.0 F. 64.0 F.
Thu Jun 17 03:08:05 2021 67.0 F. 64.0 F.
Thu Jun 17 04:08:05 2021 65.0 F. 63.0 F.
Thu Jun 17 05:08:06 2021 64.0 F. 63.0 F.
Thu Jun 17 06:08:05 2021 64.0 F. 63.0 F.
Thu Jun 17 07:08:04 2021 67.0 F. 64.9 F.
Thu Jun 17 08:08:05 2021 67.0 F. 64.9 F.
Thu Jun 17 09:08:08 2021 71.0 F. 66.0 F.
Thu Jun 17 10:08:04 2021 75.0 F. 66.9 F.
Thu Jun 17 11:08:04 2021 81.0 F. 69.1 F.
Thu Jun 17 12:08:05 2021 86.0 F. 66.9 F.
Thu Jun 17 13:08:04 2021 87.0 F. 64.9 F.
Thu Jun 17 14:08:13 2021 89.0 F. 63.0 F.
Thu Jun 17 15:08:04 2021 89.0 F. 63.0 F.
Thu Jun 17 16:08:05 2021 91.0 F. 66.9 F.
Thu Jun 17 17:08:05 2021 90.0 F. 68.0 F.
Thu Jun 17 18:08:05 2021 89.0 F. 68.0 F.
Thu Jun 17 19:08:05 2021 89.0 F. 68.0 F.
Thu Jun 17 20:08:06 2021 84.0 F. 72.0 F.
Thu Jun 17 21:08:17 2021 84.0 F. 72.0 F.